Observation data for Stamford on 07/11/2018      Previous  Date       Current Mesonet Observations  Soil Data  Daily Summary Page  Observations in Plain Language
KST2 110501Z 13007KT 25/21 A3008 RMK A01 T02500208  RH  078%=      5-min Rain = 0
KST2 110502Z 13008KT 25/21 A3008 RMK A01 T02510209  RH  077%=      5-min Rain = 0
KST2 110503Z 13008KT 25/21 A3008 RMK A01 T02510208  RH  077%=      5-min Rain = 0
KST2 110504Z 13008KT 25/21 A3008 RMK A01 T02510209  RH  077%=      5-min Rain = 0
KST2 110505Z 13008KT 25/21 A3008 RMK A01 T02510209  RH  078%=      5-min Rain = 0
KST2 110506Z 13008KT 25/21 A3008 RMK A01 T02510209  RH  078%=      5-min Rain = 0
KST2 110507Z 13007KT 25/21 A3008 RMK A01 T02510209  RH  077%=      5-min Rain = 0
KST2 110508Z 13008KT 25/21 A3008 RMK A01 T02510209  RH  078%=      5-min Rain = 0
KST2 110509Z 13008KT 25/21 A3008 RMK A01 T02510208  RH  077%=      5-min Rain = 0
KST2 110510Z 13008KT 25/21 A3008 RMK A01 T02510208  RH  077%=      5-min Rain = 0
KST2 110511Z 13008KT 25/21 A3008 RMK A01 T02520209  RH  077%=      5-min Rain = 0
KST2 110512Z 13008KT 25/21 A3008 RMK A01 T02520209  RH  077%=      5-min Rain = 0
KST2 110513Z 13008KT 25/21 A3008 RMK A01 T02520209  RH  077%=      5-min Rain = 0
KST2 110514Z 13008KT 25/21 A3008 RMK A01 T02510210  RH  078%=      5-min Rain = 0
KST2 110515Z 13008KT 25/21 A3008 RMK A01 T02510209  RH  078%=      5-min Rain = 0
KST2 110516Z 13007KT 25/21 A3008 RMK A01 T02510209  RH  078%=      5-min Rain = 0
KST2 110517Z 13007KT 25/21 A3008 RMK A01 T02510209  RH  078%=      5-min Rain = 0
KST2 110518Z 13007KT 25/21 A3008 RMK A01 T02500209  RH  078%=      5-min Rain = 0
KST2 110519Z 13007KT 25/21 A3008 RMK A01 T02500210  RH  078%=      5-min Rain = 0
KST2 110520Z 13007KT 25/21 A3008 RMK A01 T02490210  RH  079%=      5-min Rain = 0
KST2 110521Z 13007KT 25/21 A3008 RMK A01 T02480210  RH  079%=      5-min Rain = 0
KST2 110522Z 13007KT 25/21 A3008 RMK A01 T02480210  RH  079%=      5-min Rain = 0
KST2 110523Z 13007KT 25/21 A3008 RMK A01 T02480210  RH  079%=      5-min Rain = 0
KST2 110524Z 13007KT 25/21 A3008 RMK A01 T02480210  RH  080%=      5-min Rain = 0
KST2 110525Z 13007KT 25/21 A3008 RMK A01 T02470210  RH  080%=      5-min Rain = 0
KST2 110526Z 13007KT 25/21 A3008 RMK A01 T02470210  RH  080%=      5-min Rain = 0
KST2 110527Z 13007KT 25/21 A3007 RMK A01 T02470210  RH  080%=      5-min Rain = 0
KST2 110528Z 13007KT 25/21 A3007 RMK A01 T02470210  RH  080%=      5-min Rain = 0
KST2 110529Z 13007KT 25/21 A3007 RMK A01 T02460210  RH  080%=      5-min Rain = 0
KST2 110530Z 13007KT 25/21 A3007 RMK A01 T02460210  RH  080%=      5-min Rain = 0
KST2 110531Z 13007KT 25/21 A3007 RMK A01 T02460210  RH  080%=      5-min Rain = 0
KST2 110532Z 13007KT 25/21 A3007 RMK A01 T02460210  RH  080%=      5-min Rain = 0
KST2 110533Z 13007KT 25/21 A3007 RMK A01 T02450210  RH  081%=      5-min Rain = 0
KST2 110534Z 13007KT 25/21 A3007 RMK A01 T02450210  RH  081%=      5-min Rain = 0
KST2 110535Z 13007KT 25/21 A3007 RMK A01 T02450210  RH  081%=      5-min Rain = 0
KST2 110536Z 13007KT 24/21 A3007 RMK A01 T02440210  RH  081%=      5-min Rain = 0
KST2 110537Z 14007KT 24/21 A3007 RMK A01 T02440209  RH  081%=      5-min Rain = 0
KST2 110538Z 13007KT 24/21 A3007 RMK A01 T02440210  RH  081%=      5-min Rain = 0
KST2 110539Z 14007KT 24/21 A3007 RMK A01 T02430210  RH  081%=      5-min Rain = 0
KST2 110540Z 14007KT 24/21 A3007 RMK A01 T02430209  RH  082%=      5-min Rain = 0
KST2 110541Z 14007KT 24/21 A3007 RMK A01 T02430210  RH  082%=      5-min Rain = 0
KST2 110542Z 14007KT 24/21 A3007 RMK A01 T02420210  RH  082%=      5-min Rain = 0
KST2 110543Z 14007KT 24/21 A3007 RMK A01 T02420209  RH  082%=      5-min Rain = 0
KST2 110544Z 14007KT 24/21 A3007 RMK A01 T02420210  RH  082%=      5-min Rain = 0
KST2 110545Z 14007KT 24/21 A3007 RMK A01 T02410210  RH  082%=      5-min Rain = 0
KST2 110546Z 14007KT 24/21 A3007 RMK A01 T02410210  RH  083%=      5-min Rain = 0
KST2 110547Z 14006KT 24/21 A3007 RMK A01 T02410209  RH  082%=      5-min Rain = 0
KST2 110548Z 14006KT 24/21 A3007 RMK A01 T02410209  RH  082%=      5-min Rain = 0
KST2 110549Z 14006KT 24/21 A3007 RMK A01 T02410209  RH  082%=      5-min Rain = 0
KST2 110550Z 14006KT 24/21 A3007 RMK A01 T02410210  RH  083%=      5-min Rain = 0
KST2 110551Z 15006KT 24/21 A3007 RMK A01 T02400210  RH  083%=      5-min Rain = 0
KST2 110552Z 14006KT 24/21 A3007 RMK A01 T02400210  RH  083%=      5-min Rain = 0
KST2 110553Z 15006KT 24/21 A3007 RMK A01 T02400210  RH  083%=      5-min Rain = 0
KST2 110554Z 15006KT 24/21 A3007 RMK A01 T02400210  RH  083%=      5-min Rain = 0
KST2 110555Z 14005KT 24/21 A3007 RMK A01 T02400210  RH  083%=      5-min Rain = 0
KST2 110556Z 15006KT 24/21 A3006 RMK A01 T02400210  RH  083%=      5-min Rain = 0
KST2 110557Z 15006KT 24/21 A3006 RMK A01 T02400210  RH  083%=      5-min Rain = 0
KST2 110558Z 15006KT 24/21 A3006 RMK A01 T02400210  RH  083%=      5-min Rain = 0
KST2 110559Z 15006KT 24/21 A3006 RMK A01 T02400210  RH  083%=      5-min Rain = 0
KST2 110600Z 15005KT 24/21 A3006 RMK A01 T02400210  RH  083%=      5-min Rain = 0
KST2 110601Z 15005KT 24/21 A3006 RMK A01 T02400210  RH  083%=      5-min Rain = 0
KST2 110602Z 15005KT 24/21 A3006 RMK A01 T02400210  RH  083%=      5-min Rain = 0
KST2 110603Z 15005KT 24/21 A3006 RMK A01 T02390209  RH  083%=      5-min Rain = 0
KST2 110604Z 15005KT 24/21 A3007 RMK A01 T02390209  RH  084%=      5-min Rain = 0
KST2 110605Z 15005KT 24/21 A3007 RMK A01 T02390209  RH  084%=      5-min Rain = 0
KST2 110606Z 15005KT 24/21 A3007 RMK A01 T02390210  RH  084%=      5-min Rain = 0
KST2 110607Z 14005KT 24/21 A3007 RMK A01 T02380210  RH  084%=      5-min Rain = 0
KST2 110608Z 14005KT 24/21 A3007 RMK A01 T02380209  RH  084%=      5-min Rain = 0
KST2 110609Z 14005KT 24/21 A3007 RMK A01 T02380209  RH  084%=      5-min Rain = 0
KST2 110610Z 14005KT 24/21 A3006 RMK A01 T02380210  RH  084%=      5-min Rain = 0
KST2 110611Z 14005KT 24/21 A3006 RMK A01 T02380210  RH  084%=      5-min Rain = 0
KST2 110612Z 14006KT 24/21 A3006 RMK A01 T02370209  RH  084%=      5-min Rain = 0
KST2 110613Z 14005KT 24/21 A3006 RMK A01 T02380209  RH  084%=      5-min Rain = 0
KST2 110614Z 14006KT 24/21 A3006 RMK A01 T02370209  RH  084%=      5-min Rain = 0
KST2 110615Z 14006KT 24/21 A3006 RMK A01 T02370209  RH  084%=      5-min Rain = 0
KST2 110616Z 14006KT 24/21 A3006 RMK A01 T02380209  RH  084%=      5-min Rain = 0
KST2 110617Z 14006KT 24/21 A3006 RMK A01 T02380208  RH  084%=      5-min Rain = 0
KST2 110618Z 14006KT 24/21 A3006 RMK A01 T02380209  RH  084%=      5-min Rain = 0
KST2 110619Z 14006KT 24/21 A3006 RMK A01 T02380208  RH  084%=      5-min Rain = 0
KST2 110620Z 14006KT 24/21 A3006 RMK A01 T02380209  RH  084%=      5-min Rain = 0
KST2 110621Z 14006KT 24/21 A3006 RMK A01 T02380208  RH  084%=      5-min Rain = 0
KST2 110622Z 14006KT 24/21 A3006 RMK A01 T02380209  RH  084%=      5-min Rain = 0
KST2 110623Z 14006KT 24/21 A3006 RMK A01 T02380208  RH  084%=      5-min Rain = 0
KST2 110624Z 14006KT 24/21 A3006 RMK A01 T02380209  RH  084%=      5-min Rain = 0
KST2 110625Z 13006KT 24/21 A3006 RMK A01 T02380209  RH  084%=      5-min Rain = 0
KST2 110626Z 13006KT 24/21 A3006 RMK A01 T02380209  RH  084%=      5-min Rain = 0
KST2 110627Z 13006KT 24/21 A3006 RMK A01 T02370209  RH  084%=      5-min Rain = 0
KST2 110628Z 13006KT 24/21 A3006 RMK A01 T02370209  RH  084%=      5-min Rain = 0
KST2 110629Z 13006KT 24/21 A3006 RMK A01 T02370209  RH  084%=      5-min Rain = 0
KST2 110630Z 13006KT 24/21 A3006 RMK A01 T02370209  RH  084%=      5-min Rain = 0
KST2 110631Z 13006KT 24/21 A3006 RMK A01 T02370209  RH  084%=      5-min Rain = 0
KST2 110632Z 13006KT 24/21 A3006 RMK A01 T02370208  RH  084%=      5-min Rain = 0
KST2 110633Z 13006KT 24/21 A3006 RMK A01 T02370208  RH  084%=      5-min Rain = 0
KST2 110634Z 13006KT 24/21 A3006 RMK A01 T02370209  RH  084%=      5-min Rain = 0
KST2 110635Z 13006KT 24/21 A3006 RMK A01 T02370209  RH  084%=      5-min Rain = 0
KST2 110636Z 13006KT 24/21 A3006 RMK A01 T02370209  RH  084%=      5-min Rain = 0
KST2 110637Z 13005KT 24/21 A3006 RMK A01 T02370209  RH  084%=      5-min Rain = 0
KST2 110638Z 13005KT 24/21 A3006 RMK A01 T02370208  RH  084%=      5-min Rain = 0
KST2 110639Z 13005KT 24/21 A3006 RMK A01 T02360208  RH  084%=      5-min Rain = 0
KST2 110640Z 13005KT 24/21 A3006 RMK A01 T02370209  RH  084%=      5-min Rain = 0
KST2 110641Z 13005KT 24/21 A3006 RMK A01 T02360208  RH  084%=      5-min Rain = 0
KST2 110642Z 13005KT 24/21 A3006 RMK A01 T02360209  RH  084%=      5-min Rain = 0
KST2 110643Z 13005KT 24/21 A3006 RMK A01 T02360209  RH  085%=      5-min Rain = 0
KST2 110644Z 13004KT 24/21 A3006 RMK A01 T02360208  RH  085%=      5-min Rain = 0
KST2 110645Z 13004KT 24/21 A3006 RMK A01 T02360209  RH  085%=      5-min Rain = 0
KST2 110646Z 13004KT 24/21 A3006 RMK A01 T02350209  RH  085%=      5-min Rain = 0
KST2 110647Z 13004KT 24/21 A3006 RMK A01 T02350208  RH  085%=      5-min Rain = 0
KST2 110648Z 13004KT 24/21 A3006 RMK A01 T02350209  RH  085%=      5-min Rain = 0
KST2 110649Z 12004KT 24/21 A3006 RMK A01 T02350209  RH  085%=      5-min Rain = 0
KST2 110650Z 12004KT 23/21 A3006 RMK A01 T02340208  RH  085%=      5-min Rain = 0
KST2 110651Z 12003KT 24/21 A3006 RMK A01 T02350209  RH  085%=      5-min Rain = 0
KST2 110652Z 12004KT 23/21 A3006 RMK A01 T02340209  RH  086%=      5-min Rain = 0
KST2 110653Z 12003KT 23/21 A3006 RMK A01 T02340209  RH  086%=      5-min Rain = 0
KST2 110654Z 11003KT 23/21 A3006 RMK A01 T02340210  RH  086%=      5-min Rain = 0
KST2 110655Z 11003KT 23/21 A3006 RMK A01 T02340210  RH  086%=      5-min Rain = 0
KST2 110656Z 12003KT 23/21 A3006 RMK A01 T02340210  RH  086%=      5-min Rain = 0
KST2 110657Z 12003KT 23/21 A3006 RMK A01 T02340210  RH  087%=      5-min Rain = 0
KST2 110658Z 12003KT 23/21 A3006 RMK A01 T02330209  RH  086%=      5-min Rain = 0
KST2 110659Z 12004KT 23/21 A3006 RMK A01 T02340209  RH  086%=      5-min Rain = 0
KST2 110700Z 12003KT 23/21 A3006 RMK A01 T02340209  RH  086%=      5-min Rain = 0
KST2 110701Z 12003KT 23/21 A3006 RMK A01 T02340210  RH  086%=      5-min Rain = 0
KST2 110702Z 13003KT 23/21 A3006 RMK A01 T02340209  RH  086%=      5-min Rain = 0
KST2 110703Z 13004KT 23/21 A3006 RMK A01 T02340209  RH  086%=      5-min Rain = 0
KST2 110704Z 13003KT 23/21 A3006 RMK A01 T02340209  RH  086%=      5-min Rain = 0
KST2 110705Z 13003KT 23/21 A3006 RMK A01 T02340209  RH  086%=      5-min Rain = 0
KST2 110706Z 13004KT 23/21 A3006 RMK A01 T02340208  RH  085%=      5-min Rain = 0
KST2 110707Z 13004KT 24/21 A3006 RMK A01 T02350208  RH  085%=      5-min Rain = 0
KST2 110708Z 13004KT 24/21 A3006 RMK A01 T02350208  RH  085%=      5-min Rain = 0
KST2 110709Z 14005KT 24/21 A3006 RMK A01 T02350208  RH  085%=      5-min Rain = 0
KST2 110710Z 14004KT 24/21 A3006 RMK A01 T02350208  RH  085%=      5-min Rain = 0
KST2 110711Z 14004KT 24/21 A3006 RMK A01 T02350207  RH  084%=      5-min Rain = 0
KST2 110712Z 14004KT 24/21 A3006 RMK A01 T02350207  RH  084%=      5-min Rain = 0
KST2 110713Z 14004KT 24/21 A3006 RMK A01 T02350207  RH  084%=      5-min Rain = 0
KST2 110714Z 14004KT 24/21 A3006 RMK A01 T02350207  RH  084%=      5-min Rain = 0
KST2 110715Z 14005KT 24/21 A3006 RMK A01 T02350207  RH  084%=      5-min Rain = 0
KST2 110716Z 14004KT 24/21 A3006 RMK A01 T02350207  RH  085%=      5-min Rain = 0
KST2 110717Z 14005KT 24/21 A3006 RMK A01 T02350207  RH  085%=      5-min Rain = 0
KST2 110718Z 14005KT 23/21 A3006 RMK A01 T02340207  RH  085%=      5-min Rain = 0
KST2 110719Z 14005KT 23/21 A3006 RMK A01 T02340207  RH  085%=      5-min Rain = 0
KST2 110720Z 14005KT 23/21 A3006 RMK A01 T02330207  RH  085%=      5-min Rain = 0
KST2 110721Z 14005KT 23/21 A3006 RMK A01 T02330207  RH  085%=      5-min Rain = 0
KST2 110722Z 14006KT 23/21 A3006 RMK A01 T02330207  RH  085%=      5-min Rain = 0
KST2 110723Z 14005KT 23/21 A3006 RMK A01 T02330207  RH  085%=      5-min Rain = 0
KST2 110724Z 15006KT 23/21 A3006 RMK A01 T02320207  RH  085%=      5-min Rain = 0
KST2 110725Z 15006KT 23/21 A3006 RMK A01 T02330207  RH  086%=      5-min Rain = 0
KST2 110726Z 15006KT 23/21 A3006 RMK A01 T02320207  RH  086%=      5-min Rain = 0
KST2 110727Z 15006KT 23/21 A3006 RMK A01 T02310207  RH  086%=      5-min Rain = 0
KST2 110728Z 15006KT 23/21 A3006 RMK A01 T02310206  RH  086%=      5-min Rain = 0
KST2 110729Z 15006KT 23/21 A3006 RMK A01 T02310207  RH  086%=      5-min Rain = 0
KST2 110730Z 15006KT 23/21 A3006 RMK A01 T02310207  RH  086%=      5-min Rain = 0
KST2 110731Z 15006KT 23/21 A3006 RMK A01 T02310207  RH  086%=      5-min Rain = 0
KST2 110732Z 15006KT 23/21 A3006 RMK A01 T02310206  RH  086%=      5-min Rain = 0
KST2 110733Z 15006KT 23/21 A3006 RMK A01 T02310206  RH  086%=      5-min Rain = 0
KST2 110734Z 15006KT 23/21 A3006 RMK A01 T02310206  RH  086%=      5-min Rain = 0
KST2 110735Z 15006KT 23/21 A3006 RMK A01 T02310206  RH  086%=      5-min Rain = 0
KST2 110736Z 15006KT 23/21 A3006 RMK A01 T02310206  RH  086%=      5-min Rain = 0
KST2 110737Z 15006KT 23/21 A3006 RMK A01 T02310206  RH  086%=      5-min Rain = 0
KST2 110738Z 14006KT 23/21 A3006 RMK A01 T02310206  RH  086%=      5-min Rain = 0
KST2 110739Z 14006KT 23/21 A3006 RMK A01 T02310206  RH  086%=      5-min Rain = 0
KST2 110740Z 15006KT 23/21 A3006 RMK A01 T02310206  RH  086%=      5-min Rain = 0
KST2 110741Z 15005KT 23/21 A3006 RMK A01 T02310206  RH  086%=      5-min Rain = 0
KST2 110742Z 15005KT 23/21 A3006 RMK A01 T02300206  RH  086%=      5-min Rain = 0
KST2 110743Z 14006KT 23/21 A3006 RMK A01 T02300206  RH  086%=      5-min Rain = 0
KST2 110744Z 15005KT 23/21 A3006 RMK A01 T02300206  RH  086%=      5-min Rain = 0
KST2 110745Z 15005KT 23/21 A3006 RMK A01 T02300206  RH  086%=      5-min Rain = 0
KST2 110746Z 14005KT 23/21 A3006 RMK A01 T02290205  RH  086%=      5-min Rain = 0
KST2 110747Z 14005KT 23/21 A3006 RMK A01 T02290205  RH  086%=      5-min Rain = 0
KST2 110748Z 14006KT 23/21 A3006 RMK A01 T02290205  RH  086%=      5-min Rain = 0
KST2 110749Z 14006KT 23/21 A3006 RMK A01 T02290206  RH  087%=      5-min Rain = 0
KST2 110750Z 14006KT 23/21 A3006 RMK A01 T02290205  RH  086%=      5-min Rain = 0
KST2 110751Z 14006KT 23/21 A3006 RMK A01 T02280205  RH  086%=      5-min Rain = 0
KST2 110752Z 14005KT 23/21 A3006 RMK A01 T02290205  RH  087%=      5-min Rain = 0
KST2 110753Z 15005KT 23/21 A3006 RMK A01 T02290205  RH  087%=      5-min Rain = 0
KST2 110754Z 15005KT 23/21 A3006 RMK A01 T02290205  RH  087%=      5-min Rain = 0
KST2 110755Z 15005KT 23/21 A3006 RMK A01 T02280205  RH  087%=      5-min Rain = 0
KST2 110756Z 15005KT 23/21 A3006 RMK A01 T02280205  RH  087%=      5-min Rain = 0
KST2 110757Z 15005KT 23/21 A3006 RMK A01 T02280205  RH  087%=      5-min Rain = 0
KST2 110758Z 15005KT 23/21 A3006 RMK A01 T02280205  RH  087%=      5-min Rain = 0
KST2 110759Z 15005KT 23/21 A3006 RMK A01 T02270205  RH  087%=      5-min Rain = 0
KST2 110800Z 16005KT 23/21 A3006 RMK A01 T02270205  RH  087%=      5-min Rain = 0
KST2 110801Z 16005KT 23/21 A3006 RMK A01 T02270205  RH  087%=      5-min Rain = 0
KST2 110802Z 16004KT 23/21 A3006 RMK A01 T02270205  RH  088%=      5-min Rain = 0
KST2 110803Z 16004KT 23/21 A3006 RMK A01 T02260205  RH  088%=      5-min Rain = 0
KST2 110804Z 17004KT 23/21 A3006 RMK A01 T02270205  RH  088%=      5-min Rain = 0
KST2 110805Z 17004KT 23/21 A3006 RMK A01 T02260205  RH  088%=      5-min Rain = 0
KST2 110806Z 17004KT 23/21 A3006 RMK A01 T02260205  RH  088%=      5-min Rain = 0
KST2 110807Z 18004KT 23/21 A3006 RMK A01 T02260205  RH  088%=      5-min Rain = 0
KST2 110808Z 18004KT 23/21 A3006 RMK A01 T02260205  RH  088%=      5-min Rain = 0
KST2 110809Z 18005KT 23/21 A3006 RMK A01 T02260205  RH  088%=      5-min Rain = 0
KST2 110810Z 18005KT 23/21 A3006 RMK A01 T02270205  RH  087%=      5-min Rain = 0
KST2 110811Z 19005KT 23/21 A3006 RMK A01 T02270205  RH  087%=      5-min Rain = 0
KST2 110812Z 18005KT 23/20 A3006 RMK A01 T02280204  RH  086%=      5-min Rain = 0
KST2 110813Z 19005KT 23/20 A3006 RMK A01 T02290204  RH  086%=      5-min Rain = 0
KST2 110814Z 19005KT 23/20 A3006 RMK A01 T02290203  RH  085%=      5-min Rain = 0
KST2 110815Z 19005KT 23/20 A3006 RMK A01 T02300203  RH  085%=      5-min Rain = 0
KST2 110816Z 19005KT 23/20 A3006 RMK A01 T02300203  RH  085%=      5-min Rain = 0
KST2 110817Z 19004KT 23/20 A3006 RMK A01 T02300203  RH  085%=      5-min Rain = 0
KST2 110818Z 19005KT 23/20 A3006 RMK A01 T02310204  RH  085%=      5-min Rain = 0
KST2 110819Z 20005KT 23/20 A3006 RMK A01 T02300203  RH  085%=      5-min Rain = 0
KST2 110820Z 20005KT 23/20 A3006 RMK A01 T02290203  RH  085%=      5-min Rain = 0
KST2 110821Z 20005KT 23/20 A3006 RMK A01 T02290203  RH  085%=      5-min Rain = 0
KST2 110822Z 20005KT 23/20 A3006 RMK A01 T02290203  RH  086%=      5-min Rain = 0
KST2 110823Z 20004KT 23/20 A3006 RMK A01 T02280203  RH  086%=      5-min Rain = 0
KST2 110824Z 19005KT 23/20 A3006 RMK A01 T02280203  RH  086%=      5-min Rain = 0
KST2 110825Z 20005KT 23/20 A3006 RMK A01 T02280203  RH  086%=      5-min Rain = 0
KST2 110826Z 19005KT 23/20 A3006 RMK A01 T02280203  RH  086%=      5-min Rain = 0
KST2 110827Z 20005KT 23/20 A3006 RMK A01 T02280203  RH  086%=      5-min Rain = 0
KST2 110828Z 20005KT 23/20 A3006 RMK A01 T02280203  RH  086%=      5-min Rain = 0
KST2 110829Z 20006KT 23/20 A3006 RMK A01 T02280203  RH  086%=      5-min Rain = 0
KST2 110830Z 20006KT 23/20 A3006 RMK A01 T02270203  RH  086%=      5-min Rain = 0
KST2 110831Z 21006KT 23/20 A3006 RMK A01 T02270203  RH  086%=      5-min Rain = 0
KST2 110832Z 21006KT 23/20 A3006 RMK A01 T02270202  RH  086%=      5-min Rain = 0
KST2 110833Z 21006KT 23/20 A3006 RMK A01 T02280202  RH  086%=      5-min Rain = 0
KST2 110834Z 21006KT 23/20 A3006 RMK A01 T02280202  RH  085%=      5-min Rain = 0
KST2 110835Z 21006KT 23/20 A3006 RMK A01 T02280202  RH  085%=      5-min Rain = 0
KST2 110836Z 21006KT 23/20 A3006 RMK A01 T02280202  RH  085%=      5-min Rain = 0
KST2 110837Z 21007KT 23/20 A3006 RMK A01 T02290202  RH  085%=      5-min Rain = 0
KST2 110838Z 21006KT 23/20 A3006 RMK A01 T02290203  RH  085%=      5-min Rain = 0
KST2 110839Z 21006KT 23/20 A3006 RMK A01 T02290203  RH  085%=      5-min Rain = 0
KST2 110840Z 21006KT 23/20 A3006 RMK A01 T02280203  RH  086%=      5-min Rain = 0
KST2 110841Z 21006KT 23/20 A3006 RMK A01 T02280203  RH  086%=      5-min Rain = 0
KST2 110842Z 21007KT 23/20 A3006 RMK A01 T02280203  RH  086%=      5-min Rain = 0
KST2 110843Z 21007KT 23/20 A3006 RMK A01 T02280203  RH  086%=      5-min Rain = 0
KST2 110844Z 21006KT 23/20 A3006 RMK A01 T02280203  RH  086%=      5-min Rain = 0
KST2 110845Z 21006KT 23/20 A3006 RMK A01 T02280203  RH  086%=      5-min Rain = 0
KST2 110846Z 21006KT 23/20 A3006 RMK A01 T02280202  RH  086%=      5-min Rain = 0
KST2 110847Z 20006KT 23/20 A3006 RMK A01 T02280202  RH  085%=      5-min Rain = 0
KST2 110848Z 20006KT 23/20 A3006 RMK A01 T02280202  RH  085%=      5-min Rain = 0
KST2 110849Z 20006KT 23/20 A3006 RMK A01 T02290201  RH  085%=      5-min Rain = 0
KST2 110850Z 20007KT 23/20 A3006 RMK A01 T02290201  RH  084%=      5-min Rain = 0
KST2 110851Z 20006KT 23/20 A3006 RMK A01 T02300201  RH  084%=      5-min Rain = 0
KST2 110852Z 20006KT 23/20 A3006 RMK A01 T02300200  RH  083%=      5-min Rain = 0
KST2 110853Z 20007KT 23/20 A3006 RMK A01 T02310201  RH  083%=      5-min Rain = 0
KST2 110854Z 20007KT 23/20 A3006 RMK A01 T02310200  RH  083%=      5-min Rain = 0
KST2 110855Z 20007KT 23/20 A3006 RMK A01 T02320200  RH  082%=      5-min Rain = 0
KST2 110856Z 20007KT 23/20 A3006 RMK A01 T02320199  RH  082%=      5-min Rain = 0
KST2 110857Z 20007KT 23/20 A3006 RMK A01 T02330199  RH  081%=      5-min Rain = 0
KST2 110858Z 20007KT 23/20 A3006 RMK A01 T02330199  RH  081%=      5-min Rain = 0
KST2 110859Z 20008KT 23/20 A3006 RMK A01 T02330199  RH  081%=      5-min Rain = 0
KST2 110900Z 20008KT 23/20 A3006 RMK A01 T02340198  RH  081%=      5-min Rain = 0
KST2 110901Z 20008KT 23/20 A3006 RMK A01 T02340198  RH  080%=      5-min Rain = 0
KST2 110902Z 20008KT 24/20 A3006 RMK A01 T02350198  RH  080%=      5-min Rain = 0
KST2 110903Z 20007KT 24/20 A3006 RMK A01 T02350198  RH  080%=      5-min Rain = 0
KST2 110904Z 20007KT 24/20 A3006 RMK A01 T02350199  RH  080%=      5-min Rain = 0
KST2 110905Z 20008KT 24/20 A3006 RMK A01 T02350198  RH  080%=      5-min Rain = 0
KST2 110906Z 20007KT 24/20 A3006 RMK A01 T02350198  RH  080%=      5-min Rain = 0
KST2 110907Z 20007KT 24/20 A3006 RMK A01 T02350199  RH  080%=      5-min Rain = 0
KST2 110908Z 19007KT 24/20 A3006 RMK A01 T02350198  RH  080%=      5-min Rain = 0
KST2 110909Z 20008KT 24/20 A3006 RMK A01 T02350198  RH  080%=      5-min Rain = 0
KST2 110910Z 20007KT 24/20 A3006 RMK A01 T02350198  RH  080%=      5-min Rain = 0
KST2 110911Z 20008KT 24/20 A3006 RMK A01 T02350197  RH  080%=      5-min Rain = 0
KST2 110912Z 20008KT 24/20 A3006 RMK A01 T02350197  RH  079%=      5-min Rain = 0
KST2 110913Z 20007KT 24/20 A3006 RMK A01 T02350198  RH  079%=      5-min Rain = 0
KST2 110914Z 20007KT 24/20 A3006 RMK A01 T02350198  RH  080%=      5-min Rain = 0
KST2 110915Z 20007KT 24/20 A3006 RMK A01 T02350198  RH  080%=      5-min Rain = 0
KST2 110916Z 20007KT 24/20 A3006 RMK A01 T02350199  RH  080%=      5-min Rain = 0
KST2 110917Z 20006KT 24/20 A3006 RMK A01 T02350198  RH  080%=      5-min Rain = 0
KST2 110918Z 20006KT 24/20 A3006 RMK A01 T02350198  RH  080%=      5-min Rain = 0
KST2 110919Z 20006KT 24/20 A3006 RMK A01 T02350198  RH  080%=      5-min Rain = 0
KST2 110920Z 20007KT 24/20 A3006 RMK A01 T02350198  RH  080%=      5-min Rain = 0
KST2 110921Z 20006KT 24/20 A3006 RMK A01 T02350197  RH  079%=      5-min Rain = 0
KST2 110922Z 20007KT 24/20 A3006 RMK A01 T02350197  RH  079%=      5-min Rain = 0
KST2 110923Z 20007KT 24/20 A3006 RMK A01 T02350197  RH  079%=      5-min Rain = 0
KST2 110924Z 20007KT 24/20 A3006 RMK A01 T02360197  RH  079%=      5-min Rain = 0
KST2 110925Z 20006KT 24/20 A3006 RMK A01 T02360196  RH  078%=      5-min Rain = 0
KST2 110926Z 20007KT 24/20 A3006 RMK A01 T02360196  RH  078%=      5-min Rain = 0
KST2 110927Z 20007KT 24/20 A3006 RMK A01 T02360196  RH  078%=      5-min Rain = 0
KST2 110928Z 20007KT 24/20 A3006 RMK A01 T02370196  RH  078%=      5-min Rain = 0
KST2 110929Z 19007KT 24/20 A3006 RMK A01 T02370196  RH  078%=      5-min Rain = 0
KST2 110930Z 20008KT 24/20 A3006 RMK A01 T02370195  RH  077%=      5-min Rain = 0
KST2 110931Z 20008KT 24/20 A3006 RMK A01 T02370195  RH  077%=      5-min Rain = 0
KST2 110932Z 20009KT 24/20 A3006 RMK A01 T02380195  RH  077%=      5-min Rain = 0
KST2 110933Z 19010KT 24/19 A3006 RMK A01 T02380194  RH  076%=      5-min Rain = 0
KST2 110934Z 19010KT 24/19 A3006 RMK A01 T02380194  RH  076%=      5-min Rain = 0
KST2 110935Z 19010KT 24/19 A3006 RMK A01 T02390194  RH  076%=      5-min Rain = 0
KST2 110936Z 19010KT 24/19 A3006 RMK A01 T02390194  RH  076%=      5-min Rain = 0
KST2 110937Z 19010KT 24/19 A3006 RMK A01 T02390194  RH  076%=      5-min Rain = 0
KST2 110938Z 19009KT 24/20 A3006 RMK A01 T02390195  RH  076%=      5-min Rain = 0
KST2 110939Z 19010KT 24/20 A3006 RMK A01 T02390195  RH  077%=      5-min Rain = 0
KST2 110940Z 19011KT 24/20 A3006 RMK A01 T02390195  RH  076%=      5-min Rain = 0
KST2 110941Z 19011KT 24/19 A3006 RMK A01 T02380194  RH  076%=      5-min Rain = 0
KST2 110942Z 19011KT 24/19 A3006 RMK A01 T02380194  RH  076%=      5-min Rain = 0
KST2 110943Z 19011KT 24/19 A3006 RMK A01 T02380193  RH  076%=      5-min Rain = 0
KST2 110944Z 19011KT 24/19 A3006 RMK A01 T02380194  RH  076%=      5-min Rain = 0
KST2 110945Z 19011KT 24/19 A3006 RMK A01 T02380194  RH  076%=      5-min Rain = 0
KST2 110946Z 19011KT 24/19 A3006 RMK A01 T02380193  RH  076%=      5-min Rain = 0
KST2 110947Z 19011KT 24/19 A3006 RMK A01 T02390194  RH  076%=      5-min Rain = 0
KST2 110948Z 19011KT 24/19 A3006 RMK A01 T02380193  RH  076%=      5-min Rain = 0
KST2 110949Z 19009KT 24/19 A3006 RMK A01 T02380194  RH  076%=      5-min Rain = 0
KST2 110950Z 19009KT 24/20 A3006 RMK A01 T02390195  RH  077%=      5-min Rain = 0
KST2 110951Z 19009KT 24/20 A3006 RMK A01 T02380195  RH  077%=      5-min Rain = 0
KST2 110952Z 19009KT 24/20 A3006 RMK A01 T02380195  RH  077%=      5-min Rain = 0
KST2 110953Z 19010KT 24/20 A3006 RMK A01 T02370195  RH  077%=      5-min Rain = 0
KST2 110954Z 19010KT 24/19 A3006 RMK A01 T02370194  RH  077%=      5-min Rain = 0
KST2 110955Z 19009KT 24/20 A3006 RMK A01 T02380195  RH  077%=      5-min Rain = 0
KST2 110956Z 19009KT 24/20 A3006 RMK A01 T02380195  RH  077%=      5-min Rain = 0
KST2 110957Z 19008KT 24/20 A3006 RMK A01 T02370195  RH  077%=      5-min Rain = 0
KST2 110958Z 19008KT 24/20 A3006 RMK A01 T02370195  RH  077%=      5-min Rain = 0
KST2 110959Z 19008KT 24/20 A3006 RMK A01 T02370195  RH  077%=      5-min Rain = 0
KST2 111000Z 19009KT 24/19 A3006 RMK A01 T02360194  RH  077%=      5-min Rain = 0
KST2 111001Z 19008KT 24/19 A3006 RMK A01 T02370194  RH  077%=      5-min Rain = 0
KST2 111002Z 19008KT 24/19 A3006 RMK A01 T02370194  RH  077%=      5-min Rain = 0
KST2 111003Z 19008KT 24/19 A3006 RMK A01 T02370194  RH  077%=      5-min Rain = 0
KST2 111004Z 19008KT 24/19 A3006 RMK A01 T02370194  RH  077%=      5-min Rain = 0
KST2 111005Z 19008KT 24/19 A3006 RMK A01 T02370194  RH  077%=      5-min Rain = 0
KST2 111006Z 19008KT 24/19 A3006 RMK A01 T02370194  RH  077%=      5-min Rain = 0
KST2 111007Z 19009KT 24/19 A3006 RMK A01 T02370194  RH  077%=      5-min Rain = 0
KST2 111008Z 19008KT 24/19 A3006 RMK A01 T02370194  RH  077%=      5-min Rain = 0
KST2 111009Z 19008KT 24/19 A3006 RMK A01 T02370194  RH  077%=      5-min Rain = 0
KST2 111010Z 19008KT 24/19 A3006 RMK A01 T02370194  RH  077%=      5-min Rain = 0
KST2 111011Z 19008KT 24/19 A3005 RMK A01 T02370194  RH  077%=      5-min Rain = 0
KST2 111012Z 20008KT 24/19 A3006 RMK A01 T02360193  RH  077%=      5-min Rain = 0
KST2 111013Z 19008KT 24/19 A3006 RMK A01 T02370194  RH  077%=      5-min Rain = 0
KST2 111014Z 20007KT 24/19 A3006 RMK A01 T02360193  RH  077%=      5-min Rain = 0
KST2 111015Z 19007KT 24/19 A3006 RMK A01 T02360194  RH  077%=      5-min Rain = 0
KST2 111016Z 20006KT 24/19 A3006 RMK A01 T02370194  RH  077%=      5-min Rain = 0
KST2 111017Z 20007KT 24/19 A3006 RMK A01 T02370194  RH  077%=      5-min Rain = 0
KST2 111018Z 20007KT 24/19 A3006 RMK A01 T02360194  RH  077%=      5-min Rain = 0
KST2 111019Z 20007KT 24/19 A3006 RMK A01 T02360194  RH  077%=      5-min Rain = 0
KST2 111020Z 19007KT 24/19 A3006 RMK A01 T02360194  RH  077%=      5-min Rain = 0
KST2 111021Z 19007KT 24/19 A3006 RMK A01 T02360194  RH  077%=      5-min Rain = 0
KST2 111022Z 19007KT 24/19 A3006 RMK A01 T02360194  RH  077%=      5-min Rain = 0
KST2 111023Z 19007KT 24/19 A3006 RMK A01 T02360194  RH  077%=      5-min Rain = 0
KST2 111024Z 19006KT 24/19 A3006 RMK A01 T02360194  RH  077%=      5-min Rain = 0
KST2 111025Z 19007KT 24/19 A3006 RMK A01 T02360194  RH  077%=      5-min Rain = 0
KST2 111026Z 19006KT 24/19 A3006 RMK A01 T02360194  RH  077%=      5-min Rain = 0
KST2 111027Z 20006KT 24/19 A3006 RMK A01 T02360194  RH  077%=      5-min Rain = 0
KST2 111028Z 19006KT 24/19 A3006 RMK A01 T02360194  RH  078%=      5-min Rain = 0
KST2 111029Z 20006KT 24/19 A3006 RMK A01 T02350194  RH  078%=      5-min Rain = 0
KST2 111030Z 20007KT 24/19 A3006 RMK A01 T02350194  RH  078%=      5-min Rain = 0
KST2 111031Z 19006KT 24/19 A3006 RMK A01 T02350194  RH  078%=      5-min Rain = 0
KST2 111032Z 19007KT 24/19 A3006 RMK A01 T02350194  RH  078%=      5-min Rain = 0
KST2 111033Z 19007KT 24/19 A3006 RMK A01 T02350194  RH  078%=      5-min Rain = 0
KST2 111034Z 19006KT 24/19 A3006 RMK A01 T02350194  RH  078%=      5-min Rain = 0
KST2 111035Z 19006KT 23/19 A3006 RMK A01 T02340194  RH  078%=      5-min Rain = 0
KST2 111036Z 19006KT 23/19 A3006 RMK A01 T02340194  RH  078%=      5-min Rain = 0
KST2 111037Z 19006KT 23/19 A3006 RMK A01 T02340194  RH  078%=      5-min Rain = 0
KST2 111038Z 19006KT 23/19 A3006 RMK A01 T02340194  RH  078%=      5-min Rain = 0
KST2 111039Z 19006KT 23/19 A3006 RMK A01 T02340194  RH  078%=      5-min Rain = 0
KST2 111040Z 19006KT 23/19 A3006 RMK A01 T02340194  RH  078%=      5-min Rain = 0
KST2 111041Z 19005KT 23/19 A3006 RMK A01 T02340194  RH  078%=      5-min Rain = 0
KST2 111042Z 19005KT 23/19 A3006 RMK A01 T02330194  RH  079%=      5-min Rain = 0
KST2 111043Z 19006KT 23/19 A3006 RMK A01 T02330194  RH  079%=      5-min Rain = 0
KST2 111044Z 19005KT 23/19 A3006 RMK A01 T02330194  RH  079%=      5-min Rain = 0
KST2 111045Z 19005KT 23/19 A3006 RMK A01 T02320194  RH  079%=      5-min Rain = 0
KST2 111046Z 19005KT 23/20 A3006 RMK A01 T02320195  RH  079%=      5-min Rain = 0
KST2 111047Z 19005KT 23/19 A3006 RMK A01 T02320194  RH  079%=      5-min Rain = 0
KST2 111048Z 19005KT 23/19 A3006 RMK A01 T02320194  RH  080%=      5-min Rain = 0
KST2 111049Z 19006KT 23/19 A3006 RMK A01 T02310194  RH  080%=      5-min Rain = 0
KST2 111050Z 19005KT 23/19 A3006 RMK A01 T02310194  RH  080%=      5-min Rain = 0
KST2 111051Z 19005KT 23/20 A3006 RMK A01 T02310195  RH  080%=      5-min Rain = 0
KST2 111052Z 19005KT 23/20 A3006 RMK A01 T02310195  RH  080%=      5-min Rain = 0
KST2 111053Z 19005KT 23/19 A3006 RMK A01 T02300194  RH  080%=      5-min Rain = 0
KST2 111054Z 19005KT 23/19 A3006 RMK A01 T02300194  RH  080%=      5-min Rain = 0
KST2 111055Z 19005KT 23/19 A3006 RMK A01 T02300194  RH  080%=      5-min Rain = 0
KST2 111056Z 19004KT 23/20 A3006 RMK A01 T02300195  RH  080%=      5-min Rain = 0
KST2 111057Z 19005KT 23/19 A3006 RMK A01 T02300194  RH  081%=      5-min Rain = 0
KST2 111058Z 19005KT 23/20 A3007 RMK A01 T02290195  RH  081%=      5-min Rain = 0
KST2 111059Z 19005KT 23/19 A3007 RMK A01 T02290194  RH  080%=      5-min Rain = 0
KST2 111100Z 19005KT 23/19 A3007 RMK A01 T02290194  RH  080%=      5-min Rain = 0
KST2 111101Z 19005KT 23/19 A3007 RMK A01 T02290194  RH  080%=      5-min Rain = 0
KST2 111102Z 19005KT 23/19 A3007 RMK A01 T02300194  RH  081%=      5-min Rain = 0
KST2 111103Z 19005KT 23/19 A3007 RMK A01 T02290194  RH  081%=      5-min Rain = 0
KST2 111104Z 19005KT 23/19 A3007 RMK A01 T02280194  RH  081%=      5-min Rain = 0
KST2 111105Z 19005KT 23/19 A3007 RMK A01 T02280194  RH  081%=      5-min Rain = 0
KST2 111106Z 19005KT 23/19 A3006 RMK A01 T02280194  RH  081%=      5-min Rain = 0
KST2 111107Z 19005KT 23/19 A3006 RMK A01 T02280194  RH  081%=      5-min Rain = 0
KST2 111108Z 19004KT 23/19 A3006 RMK A01 T02280194  RH  081%=      5-min Rain = 0
KST2 111109Z 19005KT 23/19 A3006 RMK A01 T02280194  RH  081%=      5-min Rain = 0
KST2 111110Z 19004KT 23/19 A3006 RMK A01 T02270194  RH  081%=      5-min Rain = 0
KST2 111111Z 19005KT 23/19 A3007 RMK A01 T02270193  RH  081%=      5-min Rain = 0
KST2 111112Z 19005KT 23/19 A3007 RMK A01 T02270193  RH  081%=      5-min Rain = 0
KST2 111113Z 19004KT 23/19 A3007 RMK A01 T02270193  RH  081%=      5-min Rain = 0
KST2 111114Z 19004KT 23/19 A3007 RMK A01 T02270193  RH  081%=      5-min Rain = 0
KST2 111115Z 19004KT 23/19 A3007 RMK A01 T02270194  RH  081%=      5-min Rain = 0
KST2 111116Z 19004KT 23/19 A3007 RMK A01 T02270193  RH  081%=      5-min Rain = 0
KST2 111117Z 19004KT 23/19 A3007 RMK A01 T02270193  RH  081%=      5-min Rain = 0
KST2 111118Z 19004KT 23/19 A3007 RMK A01 T02270193  RH  081%=      5-min Rain = 0
KST2 111119Z 19004KT 23/19 A3007 RMK A01 T02270193  RH  081%=      5-min Rain = 0
KST2 111120Z 18004KT 23/19 A3007 RMK A01 T02270193  RH  081%=      5-min Rain = 0
KST2 111121Z 19004KT 23/19 A3007 RMK A01 T02270193  RH  081%=      5-min Rain = 0
KST2 111122Z 18004KT 23/19 A3007 RMK A01 T02270193  RH  081%=      5-min Rain = 0
KST2 111123Z 18004KT 23/19 A3007 RMK A01 T02270193  RH  081%=      5-min Rain = 0
KST2 111124Z 18004KT 23/19 A3007 RMK A01 T02270194  RH  082%=      5-min Rain = 0
KST2 111125Z 18004KT 23/19 A3007 RMK A01 T02270194  RH  082%=      5-min Rain = 0
KST2 111126Z 18004KT 23/19 A3007 RMK A01 T02260194  RH  082%=      5-min Rain = 0
KST2 111127Z 18004KT 23/19 A3007 RMK A01 T02260194  RH  082%=      5-min Rain = 0
KST2 111128Z 18004KT 23/19 A3007 RMK A01 T02260194  RH  082%=      5-min Rain = 0
KST2 111129Z 18004KT 23/19 A3007 RMK A01 T02260194  RH  082%=      5-min Rain = 0
KST2 111130Z 18004KT 23/19 A3007 RMK A01 T02260194  RH  082%=      5-min Rain = 0
KST2 111131Z 18004KT 23/19 A3007 RMK A01 T02250194  RH  082%=      5-min Rain = 0
KST2 111132Z 18004KT 23/19 A3007 RMK A01 T02250194  RH  083%=      5-min Rain = 0
KST2 111133Z 18004KT 23/19 A3007 RMK A01 T02250194  RH  083%=      5-min Rain = 0
KST2 111134Z 19004KT 22/19 A3007 RMK A01 T02240194  RH  083%=      5-min Rain = 0
KST2 111135Z 19003KT 22/19 A3007 RMK A01 T02240194  RH  083%=      5-min Rain = 0
KST2 111136Z 19003KT 22/19 A3007 RMK A01 T02240194  RH  083%=      5-min Rain = 0
KST2 111137Z 19003KT 22/19 A3007 RMK A01 T02240194  RH  083%=      5-min Rain = 0
KST2 111138Z 19003KT 22/19 A3007 RMK A01 T02230194  RH  083%=      5-min Rain = 0
KST2 111139Z 18004KT 22/19 A3007 RMK A01 T02230194  RH  083%=      5-min Rain = 0
KST2 111140Z 18004KT 22/19 A3007 RMK A01 T02230194  RH  084%=      5-min Rain = 0
KST2 111141Z 18004KT 22/19 A3007 RMK A01 T02230194  RH  084%=      5-min Rain = 0
KST2 111142Z 18004KT 22/19 A3007 RMK A01 T02230194  RH  084%=      5-min Rain = 0
KST2 111143Z 18004KT 22/19 A3007 RMK A01 T02220194  RH  084%=      5-min Rain = 0
KST2 111144Z 18004KT 22/19 A3007 RMK A01 T02220194  RH  084%=      5-min Rain = 0
KST2 111145Z 18004KT 22/19 A3007 RMK A01 T02210194  RH  084%=      5-min Rain = 0
KST2 111146Z 18004KT 22/19 A3007 RMK A01 T02210194  RH  085%=      5-min Rain = 0
KST2 111147Z 18004KT 22/19 A3007 RMK A01 T02200194  RH  085%=      5-min Rain = 0
KST2 111148Z 18004KT 22/19 A3007 RMK A01 T02190194  RH  085%=      5-min Rain = 0
KST2 111149Z 18004KT 22/19 A3007 RMK A01 T02190194  RH  085%=      5-min Rain = 0
KST2 111150Z 18004KT 22/19 A3007 RMK A01 T02190194  RH  086%=      5-min Rain = 0
KST2 111151Z 18004KT 22/19 A3007 RMK A01 T02190194  RH  086%=      5-min Rain = 0
KST2 111152Z 18004KT 22/19 A3007 RMK A01 T02190194  RH  086%=      5-min Rain = 0
KST2 111153Z 18004KT 22/19 A3007 RMK A01 T02190194  RH  086%=      5-min Rain = 0
KST2 111154Z 18004KT 22/19 A3007 RMK A01 T02190194  RH  086%=      5-min Rain = 0
KST2 111155Z 18005KT 22/19 A3007 RMK A01 T02180194  RH  086%=      5-min Rain = 0
KST2 111156Z 18005KT 22/19 A3007 RMK A01 T02180194  RH  086%=      5-min Rain = 0
KST2 111157Z 18005KT 22/19 A3007 RMK A01 T02180194  RH  086%=      5-min Rain = 0
KST2 111158Z 18005KT 22/19 A3007 RMK A01 T02180194  RH  086%=      5-min Rain = 0
KST2 111159Z 18005KT 22/19 A3008 RMK A01 T02180194  RH  086%=      5-min Rain = 0
KST2 111200Z 18005KT 22/19 A3008 RMK A01 T02180194  RH  086%=      5-min Rain = 0
KST2 111201Z 18004KT 22/19 A3008 RMK A01 T02180194  RH  086%=      5-min Rain = 0
KST2 111202Z 18005KT 22/19 A3008 RMK A01 T02180194  RH  086%=      5-min Rain = 0
KST2 111203Z 18005KT 22/19 A3008 RMK A01 T02180194  RH  086%=      5-min Rain = 0
KST2 111204Z 18005KT 22/19 A3008 RMK A01 T02180194  RH  086%=      5-min Rain = 0
KST2 111205Z 18004KT 22/19 A3008 RMK A01 T02190194  RH  086%=      5-min Rain = 0
KST2 111206Z 18005KT 22/19 A3008 RMK A01 T02190194  RH  086%=      5-min Rain = 0
KST2 111207Z 18004KT 22/19 A3008 RMK A01 T02200194  RH  085%=      5-min Rain = 0
KST2 111208Z 19004KT 22/19 A3008 RMK A01 T02200194  RH  085%=      5-min Rain = 0
KST2 111209Z 19004KT 22/19 A3008 RMK A01 T02210194  RH  085%=      5-min Rain = 0
KST2 111210Z 18004KT 22/19 A3008 RMK A01 T02210194  RH  084%=      5-min Rain = 0
KST2 111211Z 18004KT 22/19 A3008 RMK A01 T02220194  RH  084%=      5-min Rain = 0
KST2 111212Z 18005KT 22/19 A3008 RMK A01 T02220194  RH  084%=      5-min Rain = 0
KST2 111213Z 18004KT 22/19 A3008 RMK A01 T02220194  RH  084%=      5-min Rain = 0
KST2 111214Z 18005KT 22/19 A3008 RMK A01 T02230194  RH  084%=      5-min Rain = 0
KST2 111215Z 18005KT 22/19 A3008 RMK A01 T02230194  RH  084%=      5-min Rain = 0
KST2 111216Z 18005KT 22/19 A3008 RMK A01 T02230194  RH  084%=      5-min Rain = 0
KST2 111217Z 18004KT 22/19 A3008 RMK A01 T02230194  RH  084%=      5-min Rain = 0
KST2 111218Z 18004KT 22/19 A3008 RMK A01 T02230194  RH  084%=      5-min Rain = 0
KST2 111219Z 18004KT 22/19 A3008 RMK A01 T02230194  RH  083%=      5-min Rain = 0
KST2 111220Z 18004KT 22/19 A3008 RMK A01 T02230193  RH  083%=      5-min Rain = 0
KST2 111221Z 18004KT 22/19 A3008 RMK A01 T02240194  RH  083%=      5-min Rain = 0
KST2 111222Z 17004KT 23/19 A3008 RMK A01 T02250194  RH  083%=      5-min Rain = 0
KST2 111223Z 17004KT 23/20 A3008 RMK A01 T02250195  RH  083%=      5-min Rain = 0
KST2 111224Z 17004KT 23/19 A3008 RMK A01 T02250194  RH  083%=      5-min Rain = 0
KST2 111225Z 16004KT 23/20 A3008 RMK A01 T02250195  RH  083%=      5-min Rain = 0
KST2 111226Z 16003KT 23/20 A3008 RMK A01 T02250195  RH  083%=      5-min Rain = 0
KST2 111227Z 16004KT 22/20 A3008 RMK A01 T02240195  RH  083%=      5-min Rain = 0
KST2 111228Z 16003KT 23/20 A3008 RMK A01 T02250195  RH  083%=      5-min Rain = 0
KST2 111229Z 16003KT 23/20 A3008 RMK A01 T02250196  RH  083%=      5-min Rain = 0
KST2 111230Z 16003KT 23/20 A3008 RMK A01 T02250196  RH  084%=      5-min Rain = 0
KST2 111231Z 17003KT 23/20 A3008 RMK A01 T02260195  RH  083%=      5-min Rain = 0
KST2 111232Z 16003KT 23/20 A3009 RMK A01 T02260195  RH  083%=      5-min Rain = 0
KST2 111233Z 16003KT 23/20 A3009 RMK A01 T02270195  RH  083%=      5-min Rain = 0
KST2 111234Z 17003KT 23/20 A3009 RMK A01 T02270195  RH  082%=      5-min Rain = 0
KST2 111235Z 17003KT 23/20 A3009 RMK A01 T02270195  RH  082%=      5-min Rain = 0
KST2 111236Z 17003KT 23/20 A3009 RMK A01 T02280195  RH  082%=      5-min Rain = 0
KST2 111237Z 16003KT 23/20 A3009 RMK A01 T02280196  RH  082%=      5-min Rain = 0
KST2 111238Z 17003KT 23/20 A3009 RMK A01 T02290196  RH  082%=      5-min Rain = 0
KST2 111239Z 16003KT 23/20 A3009 RMK A01 T02300196  RH  081%=      5-min Rain = 0
KST2 111240Z 17003KT 23/20 A3009 RMK A01 T02300196  RH  081%=      5-min Rain = 0
KST2 111241Z 16002KT 23/20 A3009 RMK A01 T02310195  RH  080%=      5-min Rain = 0
KST2 111242Z 16003KT 23/20 A3009 RMK A01 T02310197  RH  081%=      5-min Rain = 0
KST2 111243Z 16003KT 23/20 A3009 RMK A01 T02320196  RH  080%=      5-min Rain = 0
KST2 111244Z 16003KT 23/20 A3009 RMK A01 T02320196  RH  080%=      5-min Rain = 0
KST2 111245Z 16003KT 23/20 A3009 RMK A01 T02320195  RH  080%=      5-min Rain = 0
KST2 111246Z 16003KT 23/20 A3009 RMK A01 T02320197  RH  081%=      5-min Rain = 0
KST2 111247Z 16003KT 23/20 A3009 RMK A01 T02330196  RH  080%=      5-min Rain = 0
KST2 111248Z 16003KT 23/20 A3009 RMK A01 T02330196  RH  080%=      5-min Rain = 0
KST2 111249Z 16003KT 23/20 A3009 RMK A01 T02330196  RH  080%=      5-min Rain = 0
KST2 111250Z 16004KT 23/20 A3009 RMK A01 T02330196  RH  079%=      5-min Rain = 0
KST2 111251Z 16004KT 23/19 A3009 RMK A01 T02340194  RH  079%=      5-min Rain = 0
KST2 111252Z 16004KT 23/19 A3009 RMK A01 T02330194  RH  079%=      5-min Rain = 0
KST2 111253Z 16004KT 23/20 A3009 RMK A01 T02340195  RH  079%=      5-min Rain = 0
KST2 111254Z 15004KT 23/20 A3009 RMK A01 T02340196  RH  079%=      5-min Rain = 0
KST2 111255Z 15005KT 23/20 A3009 RMK A01 T02340196  RH  079%=      5-min Rain = 0
KST2 111256Z 15005KT 24/20 A3009 RMK A01 T02350195  RH  078%=      5-min Rain = 0
KST2 111257Z 15004KT 24/19 A3009 RMK A01 T02350194  RH  078%=      5-min Rain = 0
KST2 111258Z 16004KT 24/20 A3009 RMK A01 T02350196  RH  079%=      5-min Rain = 0
KST2 111259Z 16005KT 24/19 A3009 RMK A01 T02360194  RH  078%=      5-min Rain = 0
KST2 111300Z 16004KT 24/20 A3009 RMK A01 T02360195  RH  078%=      5-min Rain = 0
KST2 111301Z 16005KT 24/19 A3009 RMK A01 T02370194  RH  077%=      5-min Rain = 0
KST2 111302Z 16005KT 24/19 A3009 RMK A01 T02370193  RH  076%=      5-min Rain = 0
KST2 111303Z 16004KT 24/19 A3009 RMK A01 T02370193  RH  076%=      5-min Rain = 0
KST2 111304Z 16005KT 24/19 A3009 RMK A01 T02380193  RH  076%=      5-min Rain = 0
KST2 111305Z 16005KT 24/19 A3009 RMK A01 T02380191  RH  075%=      5-min Rain = 0
KST2 111306Z 17005KT 24/19 A3009 RMK A01 T02380191  RH  075%=      5-min Rain = 0
KST2 111307Z 17005KT 24/19 A3009 RMK A01 T02380190  RH  075%=      5-min Rain = 0
KST2 111308Z 17004KT 24/19 A3009 RMK A01 T02380192  RH  075%=      5-min Rain = 0
KST2 111309Z 17005KT 24/19 A3009 RMK A01 T02390194  RH  075%=      5-min Rain = 0
KST2 111310Z 17004KT 24/19 A301 RMK A01 T02400191  RH  074%=      5-min Rain = 0
KST2 111311Z 17003KT 24/19 A301 RMK A01 T02400193  RH  075%=      5-min Rain = 0
KST2 111312Z 17004KT 24/19 A301 RMK A01 T02410192  RH  074%=      5-min Rain = 0
KST2 111313Z 17004KT 24/19 A301 RMK A01 T02420193  RH  074%=      5-min Rain = 0
KST2 111314Z 17005KT 24/19 A301 RMK A01 T02420193  RH  074%=      5-min Rain = 0
KST2 111315Z 18004KT 24/19 A301 RMK A01 T02430192  RH  073%=      5-min Rain = 0
KST2 111316Z 17004KT 24/19 A301 RMK A01 T02420191  RH  073%=      5-min Rain = 0
KST2 111317Z 17005KT 24/19 A301 RMK A01 T02420192  RH  073%=      5-min Rain = 0
KST2 111318Z 17005KT 24/19 A301 RMK A01 T02430191  RH  073%=      5-min Rain = 0
KST2 111319Z 18005KT 24/19 A301 RMK A01 T02430189  RH  072%=      5-min Rain = 0
KST2 111320Z 18004KT 24/19 A301 RMK A01 T02430190  RH  072%=      5-min Rain = 0
KST2 111321Z 18005KT 24/19 A301 RMK A01 T02430190  RH  072%=      5-min Rain = 0
KST2 111322Z 19005KT 24/19 A301 RMK A01 T02440190  RH  072%=      5-min Rain = 0
KST2 111323Z 18004KT 24/19 A301 RMK A01 T02440191  RH  072%=      5-min Rain = 0
KST2 111324Z 18005KT 25/19 A301 RMK A01 T02450191  RH  072%=      5-min Rain = 0
KST2 111325Z 18005KT 25/19 A301 RMK A01 T02460190  RH  071%=      5-min Rain = 0
KST2 111326Z 18006KT 25/19 A301 RMK A01 T02460190  RH  071%=      5-min Rain = 0
KST2 111327Z 18004KT 25/19 A301 RMK A01 T02460192  RH  071%=      5-min Rain = 0
KST2 111328Z 17004KT 25/19 A301 RMK A01 T02470192  RH  071%=      5-min Rain = 0
KST2 111329Z 18005KT 25/19 A301 RMK A01 T02470192  RH  071%=      5-min Rain = 0
KST2 111330Z 19006KT 25/19 A301 RMK A01 T02480191  RH  071%=      5-min Rain = 0
KST2 111331Z 19006KT 25/19 A301 RMK A01 T02480190  RH  070%=      5-min Rain = 0
KST2 111332Z 19005KT 25/19 A301 RMK A01 T02480190  RH  070%=      5-min Rain = 0
KST2 111333Z 18005KT 25/19 A301 RMK A01 T02480191  RH  071%=      5-min Rain = 0
KST2 111334Z 18006KT 25/19 A301 RMK A01 T02480189  RH  069%=      5-min Rain = 0
KST2 111335Z 18005KT 25/19 A301 RMK A01 T02490190  RH  070%=      5-min Rain = 0
KST2 111336Z 18006KT 25/19 A301 RMK A01 T02490190  RH  070%=      5-min Rain = 0
KST2 111337Z 19005KT 25/19 A301 RMK A01 T02490190  RH  070%=      5-min Rain = 0
KST2 111338Z 18005KT 25/19 A301 RMK A01 T02490192  RH  070%=      5-min Rain = 0
KST2 111339Z 18005KT 25/19 A301 RMK A01 T02500190  RH  069%=      5-min Rain = 0
KST2 111340Z 18005KT 25/19 A301 RMK A01 T02500192  RH  070%=      5-min Rain = 0
KST2 111341Z 18006KT 25/19 A301 RMK A01 T02510191  RH  069%=      5-min Rain = 0
KST2 111342Z 18006KT 25/19 A301 RMK A01 T02520191  RH  069%=      5-min Rain = 0
KST2 111343Z 19006KT 25/19 A301 RMK A01 T02520191  RH  069%=      5-min Rain = 0
KST2 111344Z 20006KT 25/19 A301 RMK A01 T02530191  RH  069%=      5-min Rain = 0
KST2 111345Z 19005KT 25/19 A301 RMK A01 T02540193  RH  069%=      5-min Rain = 0
KST2 111346Z 19006KT 26/19 A3011 RMK A01 T02550192  RH  068%=      5-min Rain = 0
KST2 111347Z 20006KT 26/19 A3011 RMK A01 T02560191  RH  067%=      5-min Rain = 0
KST2 111348Z 18006KT 26/19 A3011 RMK A01 T02560191  RH  067%=      5-min Rain = 0
KST2 111349Z 19006KT 26/19 A3011 RMK A01 T02560192  RH  068%=      5-min Rain = 0
KST2 111350Z 20006KT 26/19 A3011 RMK A01 T02560191  RH  068%=      5-min Rain = 0
KST2 111351Z 19006KT 26/19 A3011 RMK A01 T02560191  RH  067%=      5-min Rain = 0
KST2 111352Z 19006KT 26/19 A3011 RMK A01 T02560190  RH  067%=      5-min Rain = 0
KST2 111353Z 19006KT 26/19 A3011 RMK A01 T02560191  RH  067%=      5-min Rain = 0
KST2 111354Z 19006KT 26/19 A3011 RMK A01 T02570190  RH  067%=      5-min Rain = 0
KST2 111355Z 19005KT 26/19 A3011 RMK A01 T02580191  RH  067%=      5-min Rain = 0
KST2 111356Z 20007KT 26/19 A3011 RMK A01 T02590192  RH  067%=      5-min Rain = 0
KST2 111357Z 20006KT 26/19 A3011 RMK A01 T02600191  RH  066%=      5-min Rain = 0
KST2 111358Z 20005KT 26/19 A3011 RMK A01 T02610192  RH  066%=      5-min Rain = 0
KST2 111359Z 20006KT 26/19 A3011 RMK A01 T02630192  RH  065%=      5-min Rain = 0
KST2 111400Z 20006KT 26/19 A3011 RMK A01 T02630192  RH  065%=      5-min Rain = 0
KST2 111401Z 21006KT 26/19 A3011 RMK A01 T02630192  RH  065%=      5-min Rain = 0
KST2 111402Z 20007KT 26/19 A3011 RMK A01 T02620191  RH  065%=      5-min Rain = 0
KST2 111403Z 21007KT 26/19 A3011 RMK A01 T02620190  RH  064%=      5-min Rain = 0
KST2 111404Z 20007KT 26/19 A3011 RMK A01 T02630191  RH  065%=      5-min Rain = 0
KST2 111405Z 20006KT 26/19 A3011 RMK A01 T02640191  RH  064%=      5-min Rain = 0
KST2 111406Z 20006KT 26/19 A3011 RMK A01 T02640192  RH  065%=      5-min Rain = 0
KST2 111407Z 19006KT 27/19 A3011 RMK A01 T02650192  RH  064%=      5-min Rain = 0
KST2 111408Z 20006KT 27/19 A3011 RMK A01 T02650193  RH  064%=      5-min Rain = 0
KST2 111409Z 20006KT 27/19 A3011 RMK A01 T02650193  RH  065%=      5-min Rain = 0
KST2 111410Z 21006KT 27/19 A3011 RMK A01 T02660194  RH  064%=      5-min Rain = 0
KST2 111411Z 21008KT 27/19 A3011 RMK A01 T02670192  RH  063%=      5-min Rain = 0
KST2 111412Z 21007KT 27/19 A3011 RMK A01 T02680190  RH  063%=      5-min Rain = 0
KST2 111413Z 21007KT 27/19 A3011 RMK A01 T02680192  RH  063%=      5-min Rain = 0
KST2 111414Z 22007KT 27/19 A3011 RMK A01 T02690192  RH  063%=      5-min Rain = 0
KST2 111415Z 22006KT 27/19 A3011 RMK A01 T02690193  RH  063%=      5-min Rain = 0
KST2 111416Z 21007KT 27/19 A3011 RMK A01 T02690193  RH  063%=      5-min Rain = 0
KST2 111417Z 22007KT 27/19 A3011 RMK A01 T02700192  RH  063%=      5-min Rain = 0
KST2 111418Z 23008KT 27/19 A3011 RMK A01 T02710191  RH  062%=      5-min Rain = 0
KST2 111419Z 21007KT 27/19 A3011 RMK A01 T02720193  RH  062%=      5-min Rain = 0
KST2 111420Z 21008KT 27/19 A3011 RMK A01 T02740191  RH  061%=      5-min Rain = 0
KST2 111421Z 22009KT 27/19 A3011 RMK A01 T02740192  RH  061%=      5-min Rain = 0
KST2 111422Z 21008KT 27/19 A3011 RMK A01 T02740192  RH  061%=      5-min Rain = 0
KST2 111423Z 21007KT 27/19 A3011 RMK A01 T02740192  RH  061%=      5-min Rain = 0
KST2 111424Z 21008KT 27/19 A3011 RMK A01 T02740192  RH  061%=      5-min Rain = 0
KST2 111425Z 21008KT 28/19 A3011 RMK A01 T02750194  RH  061%=      5-min Rain = 0
KST2 111426Z 21009KT 28/19 A3011 RMK A01 T02760192  RH  060%=      5-min Rain = 0
KST2 111427Z 21008KT 28/20 A3011 RMK A01 T02760195  RH  061%=      5-min Rain = 0
KST2 111428Z 21009KT 28/19 A3011 RMK A01 T02770192  RH  060%=      5-min Rain = 0
KST2 111429Z 22007KT 28/19 A3011 RMK A01 T02770194  RH  061%=      5-min Rain = 0
KST2 111430Z 21008KT 28/19 A3011 RMK A01 T02770194  RH  060%=      5-min Rain = 0
KST2 111431Z 22009KT 28/19 A3011 RMK A01 T02770193  RH  060%=      5-min Rain = 0
KST2 111432Z 22008KT 28/19 A3011 RMK A01 T02760193  RH  061%=      5-min Rain = 0
KST2 111433Z 21008KT 28/19 A3011 RMK A01 T02760193  RH  061%=      5-min Rain = 0
KST2 111434Z 22007KT 28/19 A3011 RMK A01 T02760194  RH  061%=      5-min Rain = 0
KST2 111435Z 22007KT 28/19 A3011 RMK A01 T02770194  RH  061%=      5-min Rain = 0
KST2 111436Z 22007KT 28/19 A3011 RMK A01 T02780194  RH  060%=      5-min Rain = 0
KST2 111437Z 20008KT 28/20 A3011 RMK A01 T02780196  RH  061%=      5-min Rain = 0
KST2 111438Z 21009KT 28/20 A3011 RMK A01 T02780195  RH  061%=      5-min Rain = 0
KST2 111439Z 21009KT 28/20 A3011 RMK A01 T02790195  RH  060%=      5-min Rain = 0
KST2 111440Z 22008KT 28/20 A3011 RMK A01 T02790196  RH  061%=      5-min Rain = 0
KST2 111441Z 23009KT 28/20 A3011 RMK A01 T02800196  RH  060%=      5-min Rain = 0
KST2 111442Z 23009KT 28/20 A3011 RMK A01 T02800196  RH  060%=      5-min Rain = 0
KST2 111443Z 23008KT 28/20 A3011 RMK A01 T02800197  RH  061%=      5-min Rain = 0
KST2 111444Z 22008KT 28/20 A3011 RMK A01 T02800197  RH  061%=      5-min Rain = 0
KST2 111445Z 21006KT 28/20 A3011 RMK A01 T02820197  RH  060%=      5-min Rain = 0
KST2 111446Z 20009KT 28/20 A3011 RMK A01 T02830197  RH  060%=      5-min Rain = 0
KST2 111447Z 21010KT 29/20 A3011 RMK A01 T02850197  RH  059%=      5-min Rain = 0
KST2 111448Z 20010KT 29/20 A3011 RMK A01 T02860198  RH  059%=      5-min Rain = 0
KST2 111449Z 20011KT 29/20 A3011 RMK A01 T02870196  RH  058%=      5-min Rain = 0
KST2 111450Z 21009KT 29/20 A3011 RMK A01 T02870197  RH  058%=      5-min Rain = 0
KST2 111451Z 21010KT 29/20 A3011 RMK A01 T02860198  RH  059%=      5-min Rain = 0
KST2 111452Z 20009KT 29/20 A3011 RMK A01 T02860197  RH  059%=      5-min Rain = 0
KST2 111453Z 21009KT 29/20 A3011 RMK A01 T02860198  RH  059%=      5-min Rain = 0
KST2 111454Z 22011KT 29/20 A3011 RMK A01 T02880199  RH  059%=      5-min Rain = 0
KST2 111455Z 22010KT 29/20 A3011 RMK A01 T02890197  RH  058%=      5-min Rain = 0
KST2 111456Z 22008KT 29/20 A3011 RMK A01 T02880197  RH  058%=      5-min Rain = 0
KST2 111457Z 23009KT 29/20 A3011 RMK A01 T02870198  RH  058%=      5-min Rain = 0
KST2 111458Z 21008KT 29/20 A3011 RMK A01 T02880198  RH  059%=      5-min Rain = 0
KST2 111459Z 22008KT 29/20 A3011 RMK A01 T02890201  RH  059%=      5-min Rain = 0
KST2 111500Z 23011KT 29/20 A3011 RMK A01 T02920198  RH  057%=      5-min Rain = 0
KST2 111501Z 22011KT 29/20 A3011 RMK A01 T02920198  RH  057%=      5-min Rain = 0
KST2 111502Z 21008KT 29/20 A3011 RMK A01 T02900199  RH  058%=      5-min Rain = 0
KST2 111503Z 22008KT 29/20 A3011 RMK A01 T02890199  RH  058%=      5-min Rain = 0
KST2 111504Z 22010KT 29/20 A3011 RMK A01 T02880199  RH  059%=      5-min Rain = 0
KST2 111505Z 23008KT 29/20 A3011 RMK A01 T02890199  RH  058%=      5-min Rain = 0
KST2 111506Z 23008KT 29/20 A3011 RMK A01 T02890201  RH  059%=      5-min Rain = 0
KST2 111507Z 23009KT 29/20 A3011 RMK A01 T02910201  RH  058%=      5-min Rain = 0
KST2 111508Z 23010KT 29/20 A3011 RMK A01 T02930198  RH  057%=      5-min Rain = 0
KST2 111509Z 22009KT 29/20 A3011 RMK A01 T02920199  RH  057%=      5-min Rain = 0
KST2 111510Z 23009KT 29/20 A3011 RMK A01 T02910197  RH  057%=      5-min Rain = 0
KST2 111511Z 22010KT 29/20 A3011 RMK A01 T02900198  RH  058%=      5-min Rain = 0
KST2 111512Z 22012KT 29/20 A3011 RMK A01 T02910197  RH  057%=      5-min Rain = 0
KST2 111513Z 23008KT 29/20 A3011 RMK A01 T02910197  RH  057%=      5-min Rain = 0
KST2 111514Z 21008KT 29/20 A3011 RMK A01 T02900200  RH  058%=      5-min Rain = 0
KST2 111515Z 21011KT 29/20 A301 RMK A01 T02920199  RH  057%=      5-min Rain = 0
KST2 111516Z 21012KT 29/20 A301 RMK A01 T02940198  RH  056%=      5-min Rain = 0
KST2 111517Z 21011KT 29/20 A301 RMK A01 T02930197  RH  056%=      5-min Rain = 0
KST2 111518Z 22009KT 29/20 A301 RMK A01 T02920198  RH  057%=      5-min Rain = 0
KST2 111519Z 22010KT 29/20 A3011 RMK A01 T02920198  RH  057%=      5-min Rain = 0
KST2 111520Z 21011KT 29/20 A3011 RMK A01 T02920198  RH  057%=      5-min Rain = 0
KST2 111521Z 22009KT 29/20 A3011 RMK A01 T02920199  RH  057%=      5-min Rain = 0
KST2 111522Z 22009KT 29/20 A3011 RMK A01 T02920200  RH  058%=      5-min Rain = 0
KST2 111523Z 23010KT 30/20 A3011 RMK A01 T02950200  RH  057%=      5-min Rain = 0
KST2 111524Z 23011KT 30/20 A3011 RMK A01 T02960199  RH  056%=      5-min Rain = 0
KST2 111525Z 23011KT 30/20 A3011 RMK A01 T02970199  RH  056%=      5-min Rain = 0
KST2 111526Z 23011KT 30/20 A301 RMK A01 T02970199  RH  056%=      5-min Rain = 0
KST2 111527Z 22010KT 30/20 A3011 RMK A01 T02970200  RH  056%=      5-min Rain = 0
KST2 111528Z 23009KT 30/20 A301 RMK A01 T02980200  RH  055%=      5-min Rain = 0
KST2 111529Z 23009KT 30/20 A301 RMK A01 T02980200  RH  056%=      5-min Rain = 0
KST2 111530Z 23008KT 30/20 A301 RMK A01 T02980200  RH  056%=      5-min Rain = 0
KST2 111531Z 22009KT 30/20 A301 RMK A01 T02980201  RH  056%=      5-min Rain = 0
KST2 111532Z 21010KT 30/20 A301 RMK A01 T03010201  RH  055%=      5-min Rain = 0
KST2 111533Z 21011KT 30/20 A301 RMK A01 T03020199  RH  054%=      5-min Rain = 0
KST2 111534Z 21011KT 30/20 A301 RMK A01 T03010198  RH  054%=      5-min Rain = 0
KST2 111535Z 21010KT 30/20 A301 RMK A01 T02980199  RH  056%=      5-min Rain = 0
KST2 111536Z 20009KT 30/20 A301 RMK A01 T02980201  RH  056%=      5-min Rain = 0
KST2 111537Z 22008KT 30/20 A301 RMK A01 T02960200  RH  056%=      5-min Rain = 0
KST2 111538Z 22008KT 30/20 A301 RMK A01 T02960202  RH  057%=      5-min Rain = 0
KST2 111539Z 22008KT 30/20 A301 RMK A01 T02980200  RH  056%=      5-min Rain = 0
KST2 111540Z 22011KT 30/20 A301 RMK A01 T03000200  RH  055%=      5-min Rain = 0
KST2 111541Z 21010KT 30/20 A301 RMK A01 T03010200  RH  055%=      5-min Rain = 0
KST2 111542Z 21010KT 30/20 A301 RMK A01 T03010199  RH  054%=      5-min Rain = 0
KST2 111543Z 22008KT 30/20 A301 RMK A01 T03000201  RH  055%=      5-min Rain = 0
KST2 111544Z 23008KT 30/20 A301 RMK A01 T02990201  RH  056%=      5-min Rain = 0
KST2 111545Z 22009KT 30/20 A301 RMK A01 T02980202  RH  056%=      5-min Rain = 0
KST2 111546Z 22008KT 30/20 A301 RMK A01 T02990199  RH  055%=      5-min Rain = 0
KST2 111547Z 21008KT 30/20 A301 RMK A01 T02980201  RH  056%=      5-min Rain = 0
KST2 111548Z 20008KT 30/20 A301 RMK A01 T02990201  RH  056%=      5-min Rain = 0
KST2 111549Z 20010KT 30/20 A301 RMK A01 T03010201  RH  055%=      5-min Rain = 0
KST2 111550Z 21010KT 30/20 A301 RMK A01 T03020201  RH  055%=      5-min Rain = 0
KST2 111551Z 21009KT 30/20 A301 RMK A01 T03020201  RH  055%=      5-min Rain = 0
KST2 111552Z 22009KT 30/20 A301 RMK A01 T03020203  RH  055%=      5-min Rain = 0
KST2 111553Z 21008KT 30/20 A301 RMK A01 T03030201  RH  054%=      5-min Rain = 0
KST2 111554Z 20010KT 30/20 A301 RMK A01 T03030202  RH  055%=      5-min Rain = 0
KST2 111555Z 20010KT 30/20 A301 RMK A01 T03020202  RH  055%=      5-min Rain = 0
KST2 111556Z 22009KT 30/20 A301 RMK A01 T03020201  RH  055%=      5-min Rain = 0
KST2 111557Z 22010KT 30/20 A301 RMK A01 T03010200  RH  055%=      5-min Rain = 0
KST2 111558Z 22010KT 30/20 A301 RMK A01 T03010201  RH  055%=      5-min Rain = 0
KST2 111559Z 21009KT 30/20 A301 RMK A01 T03010202  RH  055%=      5-min Rain = 0
KST2 111600Z 21009KT 30/20 A301 RMK A01 T03030202  RH  055%=      5-min Rain = 0
KST2 111601Z 22008KT 30/20 A301 RMK A01 T03040201  RH  054%=      5-min Rain = 0
KST2 111602Z 22010KT 30/20 A301 RMK A01 T03030202  RH  055%=      5-min Rain = 0
KST2 111603Z 23008KT 30/20 A301 RMK A01 T03030203  RH  055%=      5-min Rain = 0
KST2 111604Z 23007KT 30/20 A301 RMK A01 T03040204  RH  055%=      5-min Rain = 0
KST2 111605Z 21006KT 30/21 A301 RMK A01 T03030205  RH  056%=      5-min Rain = 0
KST2 111606Z 21006KT 31/20 A301 RMK A01 T03050204  RH  055%=      5-min Rain = 0
KST2 111607Z 20008KT 31/20 A301 RMK A01 T03060204  RH  055%=      5-min Rain = 0
KST2 111608Z 22007KT 31/20 A301 RMK A01 T03060204  RH  055%=      5-min Rain = 0
KST2 111609Z 23007KT 31/20 A301 RMK A01 T03090204  RH  054%=      5-min Rain = 0
KST2 111610Z 21007KT 31/20 A301 RMK A01 T03110202  RH  053%=      5-min Rain = 0
KST2 111611Z 21008KT 31/21 A301 RMK A01 T03100205  RH  053%=      5-min Rain = 0
KST2 111612Z 21009G16KT 31/20 A301 RMK A01 T03110203  RH  053%=      5-min Rain = 0
KST2 111613Z 23010KT 31/21 A301 RMK A01 T03110205  RH  053%=      5-min Rain = 0
KST2 111614Z 22009KT 31/20 A301 RMK A01 T03110201  RH  052%=      5-min Rain = 0
KST2 111615Z 20010KT 31/20 A301 RMK A01 T03100201  RH  052%=      5-min Rain = 0
KST2 111616Z 21010KT 31/20 A301 RMK A01 T03100200  RH  052%=      5-min Rain = 0
KST2 111617Z 20010KT 31/20 A301 RMK A01 T03100199  RH  052%=      5-min Rain = 0
KST2 111618Z 20010KT 31/20 A301 RMK A01 T03110201  RH  052%=      5-min Rain = 0
KST2 111619Z 21009KT 31/20 A301 RMK A01 T03120200  RH  051%=      5-min Rain = 0
KST2 111620Z 21008KT 31/20 A301 RMK A01 T03120201  RH  052%=      5-min Rain = 0
KST2 111621Z 22007KT 31/20 A301 RMK A01 T03100202  RH  052%=      5-min Rain = 0
KST2 111622Z 23006KT 31/20 A301 RMK A01 T03100202  RH  052%=      5-min Rain = 0
KST2 111623Z 20007KT 31/20 A301 RMK A01 T03110202  RH  052%=      5-min Rain = 0
KST2 111624Z 22009KT 31/20 A301 RMK A01 T03120201  RH  052%=      5-min Rain = 0
KST2 111625Z 21009KT 31/20 A301 RMK A01 T03130202  RH  052%=      5-min Rain = 0
KST2 111626Z 20008KT 32/20 A301 RMK A01 T03150198  RH  050%=      5-min Rain = 0
KST2 111627Z 19008KT 32/20 A3009 RMK A01 T03150198  RH  050%=      5-min Rain = 0
KST2 111628Z 20009KT 32/20 A3009 RMK A01 T03160200  RH  050%=      5-min Rain = 0
KST2 111629Z 21008KT 32/20 A3009 RMK A01 T03180199  RH  049%=      5-min Rain = 0
KST2 111630Z 21009KT 32/20 A3009 RMK A01 T03180200  RH  050%=      5-min Rain = 0
KST2 111631Z 21009KT 32/20 A3009 RMK A01 T03180197  RH  049%=      5-min Rain = 0
KST2 111632Z 22006KT 32/20 A3009 RMK A01 T03160195  RH  049%=      5-min Rain = 0
KST2 111633Z 22009KT 31/20 A3009 RMK A01 T03140197  RH  050%=      5-min Rain = 0
KST2 111634Z 20009KT 32/20 A3009 RMK A01 T03150197  RH  050%=      5-min Rain = 0
KST2 111635Z 22009KT 32/20 A3009 RMK A01 T03150198  RH  050%=      5-min Rain = 0
KST2 111636Z 23008KT 32/20 A3009 RMK A01 T03150199  RH  050%=      5-min Rain = 0
KST2 111637Z 22006KT 32/20 A3009 RMK A01 T03150200  RH  050%=      5-min Rain = 0
KST2 111638Z 20009KT 32/20 A3009 RMK A01 T03170201  RH  050%=      5-min Rain = 0
KST2 111639Z 19008KT 32/20 A3009 RMK A01 T03190197  RH  048%=      5-min Rain = 0
KST2 111640Z 20007KT 32/20 A3009 RMK A01 T03190198  RH  049%=      5-min Rain = 0
KST2 111641Z 22008KT 32/20 A3009 RMK A01 T03170196  RH  049%=      5-min Rain = 0
KST2 111642Z 23008KT 32/20 A3009 RMK A01 T03180199  RH  049%=      5-min Rain = 0
KST2 111643Z 23009KT 32/20 A3009 RMK A01 T03210197  RH  048%=      5-min Rain = 0
KST2 111644Z 24008KT 32/20 A3009 RMK A01 T03200201  RH  049%=      5-min Rain = 0
KST2 111645Z 24008KT 32/20 A3009 RMK A01 T03190200  RH  049%=      5-min Rain = 0
KST2 111646Z 24006KT 32/20 A3009 RMK A01 T03180200  RH  049%=      5-min Rain = 0
KST2 111647Z 22007KT 32/20 A3009 RMK A01 T03180200  RH  050%=      5-min Rain = 0
KST2 111648Z 21009KT 32/20 A3009 RMK A01 T03200196  RH  048%=      5-min Rain = 0
KST2 111649Z 22007KT 32/20 A3009 RMK A01 T03200198  RH  048%=      5-min Rain = 0
KST2 111650Z 22006KT 32/20 A3009 RMK A01 T03190200  RH  049%=      5-min Rain = 0
KST2 111651Z 21008KT 32/20 A3009 RMK A01 T03200201  RH  050%=      5-min Rain = 0
KST2 111652Z 21006KT 32/20 A3009 RMK A01 T03210203  RH  050%=      5-min Rain = 0
KST2 111653Z 18005KT 32/20 A3009 RMK A01 T03230203  RH  049%=      5-min Rain = 0
KST2 111654Z 20003KT 33/20 A3009 RMK A01 T03250203  RH  049%=      5-min Rain = 0
KST2 111655Z 20007KT 33/20 A3009 RMK A01 T03280200  RH  047%=      5-min Rain = 0
KST2 111656Z 24009KT 33/19 A3009 RMK A01 T03300193  RH  044%=      5-min Rain = 0
KST2 111657Z 23009KT 33/19 A3009 RMK A01 T03280189  RH  044%=      5-min Rain = 0
KST2 111658Z 23007KT 33/19 A3009 RMK A01 T03250189  RH  044%=      5-min Rain = 0
KST2 111659Z 22007KT 32/19 A3009 RMK A01 T03240191  RH  045%=      5-min Rain = 0
KST2 111700Z 21006KT 32/19 A3009 RMK A01 T03240192  RH  046%=      5-min Rain = 0
KST2 111701Z 23004KT 32/19 A3009 RMK A01 T03230194  RH  046%=      5-min Rain = 0
KST2 111702Z 22006KT 32/19 A3009 RMK A01 T03230194  RH  046%=      5-min Rain = 0
KST2 111703Z 23007KT 32/20 A3009 RMK A01 T03240196  RH  047%=      5-min Rain = 0
KST2 111704Z 23006KT 33/20 A3009 RMK A01 T03260196  RH  046%=      5-min Rain = 0
KST2 111705Z 21005KT 33/19 A3009 RMK A01 T03270194  RH  045%=      5-min Rain = 0
KST2 111706Z 19008KT 33/20 A3008 RMK A01 T03280197  RH  046%=      5-min Rain = 0
KST2 111707Z 18009KT 33/19 A3008 RMK A01 T03300192  RH  044%=      5-min Rain = 0
KST2 111708Z 17008KT 33/19 A3008 RMK A01 T03290188  RH  043%=      5-min Rain = 0
KST2 111709Z 17010KT 33/18 A3008 RMK A01 T03280184  RH  043%=      5-min Rain = 0
KST2 111710Z 20008KT 33/19 A3009 RMK A01 T03300190  RH  044%=      5-min Rain = 0
KST2 111711Z 21007KT 33/19 A3009 RMK A01 T03300191  RH  044%=      5-min Rain = 0
KST2 111712Z 21006KT 33/19 A3009 RMK A01 T03280189  RH  044%=      5-min Rain = 0
KST2 111713Z 22006KT 33/19 A3008 RMK A01 T03290191  RH  044%=      5-min Rain = 0
KST2 111714Z 23003KT 33/19 A3008 RMK A01 T03280191  RH  044%=      5-min Rain = 0
KST2 111715Z 21007KT 33/20 A3008 RMK A01 T03260195  RH  046%=      5-min Rain = 0
KST2 111716Z 21007KT 33/19 A3008 RMK A01 T03290192  RH  044%=      5-min Rain = 0
KST2 111717Z 20009KT 33/19 A3008 RMK A01 T03300194  RH  044%=      5-min Rain = 0
KST2 111718Z 20008KT 33/20 A3008 RMK A01 T03300195  RH  045%=      5-min Rain = 0
KST2 111719Z 19008KT 33/20 A3008 RMK A01 T03300196  RH  045%=      5-min Rain = 0
KST2 111720Z 19006KT 33/20 A3008 RMK A01 T03300196  RH  045%=      5-min Rain = 0
KST2 111721Z 18008KT 33/20 A3008 RMK A01 T03300195  RH  045%=      5-min Rain = 0
KST2 111722Z 19006KT 33/20 A3008 RMK A01 T03290195  RH  045%=      5-min Rain = 0
KST2 111723Z 18005KT 33/20 A3008 RMK A01 T03290195  RH  045%=      5-min Rain = 0
KST2 111724Z 16005KT 33/20 A3008 RMK A01 T03280196  RH  046%=      5-min Rain = 0
KST2 111725Z 17008KT 33/19 A3008 RMK A01 T03280191  RH  044%=      5-min Rain = 0
KST2 111726Z 15009KT 33/18 A3008 RMK A01 T03290184  RH  042%=      5-min Rain = 0
KST2 111727Z 15007KT 33/18 A3008 RMK A01 T03300184  RH  042%=      5-min Rain = 0
KST2 111728Z 17008KT 33/19 A3008 RMK A01 T03310188  RH  043%=      5-min Rain = 0
KST2 111729Z 16007KT 33/19 A3008 RMK A01 T03310187  RH  043%=      5-min Rain = 0
KST2 111730Z 15006KT 33/19 A3008 RMK A01 T03320187  RH  042%=      5-min Rain = 0
KST2 111731Z 17005KT 33/19 A3008 RMK A01 T03320190  RH  043%=      5-min Rain = 0
KST2 111732Z 16006KT 34/19 A3008 RMK A01 T03350194  RH  043%=      5-min Rain = 0
KST2 111733Z 15006KT 34/19 A3008 RMK A01 T03360191  RH  042%=      5-min Rain = 0
KST2 111734Z 16006KT 33/19 A3008 RMK A01 T03340189  RH  042%=      5-min Rain = 0
KST2 111735Z 20008KT 33/19 A3008 RMK A01 T03330191  RH  043%=      5-min Rain = 0
KST2 111736Z 21008KT 34/19 A3008 RMK A01 T03350190  RH  043%=      5-min Rain = 0
KST2 111737Z 22003KT 33/19 A3008 RMK A01 T03320190  RH  043%=      5-min Rain = 0
KST2 111738Z 21007KT 33/19 A3008 RMK A01 T03310193  RH  044%=      5-min Rain = 0
KST2 111739Z 21006KT 33/19 A3008 RMK A01 T03320194  RH  044%=      5-min Rain = 0
KST2 111740Z 21005KT 33/19 A3008 RMK A01 T03320194  RH  044%=      5-min Rain = 0
KST2 111741Z 22006KT 33/19 A3008 RMK A01 T03310194  RH  044%=      5-min Rain = 0
KST2 111742Z 23004KT 33/20 A3008 RMK A01 T03330195  RH  044%=      5-min Rain = 0
KST2 111743Z 21010KT 34/19 A3007 RMK A01 T03360194  RH  043%=      5-min Rain = 0
KST2 111744Z 18010KT 34/19 A3008 RMK A01 T03400191  RH  042%=      5-min Rain = 0
KST2 111745Z 17009KT 34/19 A3008 RMK A01 T03400187  RH  041%=      5-min Rain = 0
KST2 111746Z 17011KT 34/19 A3008 RMK A01 T03380188  RH  041%=      5-min Rain = 0
KST2 111747Z 18009KT 34/19 A3008 RMK A01 T03380188  RH  041%=      5-min Rain = 0
KST2 111748Z 19006KT 34/19 A3008 RMK A01 T03370185  RH  041%=      5-min Rain = 0
KST2 111749Z 17005KT 33/19 A3008 RMK A01 T03330186  RH  042%=      5-min Rain = 0
KST2 111750Z 18003KT 33/18 A3008 RMK A01 T03330183  RH  041%=      5-min Rain = 0
KST2 111751Z 21004KT 33/18 A3008 RMK A01 T03330182  RH  041%=      5-min Rain = 0
KST2 111752Z 22010KT 33/18 A3008 RMK A01 T03340175  RH  039%=      5-min Rain = 0
KST2 111753Z 21005KT 34/17 A3008 RMK A01 T03360174  RH  038%=      5-min Rain = 0
KST2 111754Z 19008KT 34/18 A3008 RMK A01 T03370182  RH  040%=      5-min Rain = 0
KST2 111755Z 20008KT 34/19 A3008 RMK A01 T03420185  RH  040%=      5-min Rain = 0
KST2 111756Z 18008KT 35/18 A3008 RMK A01 T03460184  RH  039%=      5-min Rain = 0
KST2 111757Z 18007KT 34/18 A3007 RMK A01 T03440181  RH  038%=      5-min Rain = 0
KST2 111758Z 18006KT 34/18 A3007 RMK A01 T03410181  RH  039%=      5-min Rain = 0
KST2 111759Z 19006KT 34/18 A3007 RMK A01 T03400182  RH  039%=      5-min Rain = 0
KST2 111800Z 15007KT 34/18 A3007 RMK A01 T03430180  RH  038%=      5-min Rain = 0
KST2 111801Z 14005KT 34/18 A3007 RMK A01 T03440179  RH  038%=      5-min Rain = 0
KST2 111802Z 17005KT 34/18 A3007 RMK A01 T03430179  RH  038%=      5-min Rain = 0
KST2 111803Z 17006KT 34/18 A3007 RMK A01 T03420181  RH  038%=      5-min Rain = 0
KST2 111804Z 20006KT 34/18 A3007 RMK A01 T03420182  RH  039%=      5-min Rain = 0
KST2 111805Z 17006KT 34/18 A3007 RMK A01 T03420182  RH  039%=      5-min Rain = 0
KST2 111806Z 15006KT 34/19 A3007 RMK A01 T03420185  RH  039%=      5-min Rain = 0
KST2 111807Z 15009KT 35/19 A3007 RMK A01 T03470185  RH  038%=      5-min Rain = 0
KST2 111808Z 13006KT 34/18 A3007 RMK A01 T03440181  RH  038%=      5-min Rain = 0
KST2 111809Z 15009KT 34/18 A3007 RMK A01 T03430184  RH  039%=      5-min Rain = 0
KST2 111810Z 16009KT 35/18 A3007 RMK A01 T03460183  RH  038%=      5-min Rain = 0
KST2 111811Z 15008KT 35/18 A3007 RMK A01 T03470183  RH  038%=      5-min Rain = 0
KST2 111812Z 15009KT 34/18 A3007 RMK A01 T03430182  RH  039%=      5-min Rain = 0
KST2 111813Z 13009KT 34/18 A3007 RMK A01 T03420183  RH  039%=      5-min Rain = 0
KST2 111814Z 13008KT 35/18 A3007 RMK A01 T03450184  RH  039%=      5-min Rain = 0
KST2 111815Z 18007KT 35/18 A3007 RMK A01 T03460184  RH  038%=      5-min Rain = 0
KST2 111816Z 18009KT 35/18 A3007 RMK A01 T03460184  RH  038%=      5-min Rain = 0
KST2 111817Z 18006KT 35/18 A3007 RMK A01 T03460181  RH  038%=      5-min Rain = 0
KST2 111818Z 20005KT 34/18 A3007 RMK A01 T03430183  RH  039%=      5-min Rain = 0
KST2 111819Z 19004KT 34/18 A3007 RMK A01 T03430181  RH  038%=      5-min Rain = 0
KST2 111820Z 22001KT 34/18 A3006 RMK A01 T03430181  RH  038%=      5-min Rain = 0
KST2 111821Z 20006KT 34/18 A3006 RMK A01 T03430182  RH  039%=      5-min Rain = 0
KST2 111822Z 17006KT 34/18 A3006 RMK A01 T03430180  RH  038%=      5-min Rain = 0
KST2 111823Z 13006KT 34/18 A3006 RMK A01 T03430181  RH  038%=      5-min Rain = 0
KST2 111824Z 14005KT 34/18 A3006 RMK A01 T03430183  RH  039%=      5-min Rain = 0
KST2 111825Z 16009G14KT 35/18 A3006 RMK A01 T03450182  RH  038%=      5-min Rain = 0
KST2 111826Z 17011KT 35/18 A3006 RMK A01 T03490177  RH  036%=      5-min Rain = 0
KST2 111827Z 14009KT 35/17 A3006 RMK A01 T03520171  RH  034%=      5-min Rain = 0
KST2 111828Z 12008KT 35/17 A3006 RMK A01 T03540174  RH  034%=      5-min Rain = 0
KST2 111829Z 11006KT 35/18 A3006 RMK A01 T03500175  RH  036%=      5-min Rain = 0
KST2 111830Z 12005KT 35/17 A3006 RMK A01 T03450172  RH  036%=      5-min Rain = 0
KST2 111831Z 15002KT 34/17 A3006 RMK A01 T03430172  RH  036%=      5-min Rain = 0
KST2 111832Z 19005KT 34/17 A3006 RMK A01 T03430172  RH  036%=      5-min Rain = 0
KST2 111833Z 17008G13KT 35/17 A3006 RMK A01 T03470172  RH  035%=      5-min Rain = 0
KST2 111834Z 15008KT 35/17 A3006 RMK A01 T03490171  RH  035%=      5-min Rain = 0
KST2 111835Z 14005KT 35/17 A3006 RMK A01 T03470169  RH  035%=      5-min Rain = 0
KST2 111836Z 14012KT 35/17 A3006 RMK A01 T03470169  RH  035%=      5-min Rain = 0
KST2 111837Z 16014KT 35/17 A3006 RMK A01 T03510168  RH  034%=      5-min Rain = 0
KST2 111838Z 16014KT 35/17 A3006 RMK A01 T03530168  RH  034%=      5-min Rain = 0
KST2 111839Z 15012KT 35/17 A3006 RMK A01 T03530168  RH  033%=      5-min Rain = 0
KST2 111840Z 16013KT 35/17 A3006 RMK A01 T03530169  RH  034%=      5-min Rain = 0
KST2 111841Z 15011KT 35/17 A3006 RMK A01 T03530168  RH  033%=      5-min Rain = 0
KST2 111842Z 16008KT 35/17 A3006 RMK A01 T03530167  RH  033%=      5-min Rain = 0
KST2 111843Z 15006KT 35/17 A3006 RMK A01 T03520166  RH  033%=      5-min Rain = 0
KST2 111844Z 16012KT 35/17 A3006 RMK A01 T03520168  RH  034%=      5-min Rain = 0
KST2 111845Z 17011KT 36/17 A3006 RMK A01 T03550166  RH  033%=      5-min Rain = 0
KST2 111846Z 17006KT 36/16 A3006 RMK A01 T03550164  RH  032%=      5-min Rain = 0
KST2 111847Z 19002KT 35/17 A3006 RMK A01 T03520167  RH  033%=      5-min Rain = 0
KST2 111848Z 16005KT 35/16 A3005 RMK A01 T03520164  RH  033%=      5-min Rain = 0
KST2 111849Z 15008KT 35/17 A3005 RMK A01 T03530166  RH  033%=      5-min Rain = 0
KST2 111850Z 16009G14KT 36/17 A3005 RMK A01 T03560166  RH  032%=      5-min Rain = 0
KST2 111851Z 14007KT 36/16 A3006 RMK A01 T03550163  RH  032%=      5-min Rain = 0
KST2 111852Z 16008KT 36/17 A3005 RMK A01 T03560168  RH  033%=      5-min Rain = 0
KST2 111853Z 16010KT 36/17 A3005 RMK A01 T03600171  RH  033%=      5-min Rain = 0
KST2 111854Z 18007KT 36/17 A3005 RMK A01 T03620173  RH  033%=      5-min Rain = 0
KST2 111855Z 17010KT 36/17 A3005 RMK A01 T03630173  RH  033%=      5-min Rain = 0
KST2 111856Z 20008KT 36/17 A3005 RMK A01 T03580169  RH  033%=      5-min Rain = 0
KST2 111857Z 22008KT 35/17 A3005 RMK A01 T03530170  RH  034%=      5-min Rain = 0
KST2 111858Z 19010KT 35/17 A3005 RMK A01 T03540172  RH  034%=      5-min Rain = 0
KST2 111859Z 18009KT 36/17 A3005 RMK A01 T03570169  RH  033%=      5-min Rain = 0
KST2 111900Z 16012KT 36/16 A3005 RMK A01 T03560164  RH  032%=      5-min Rain = 0
KST2 111901Z 17011KT 36/16 A3005 RMK A01 T03560158  RH  031%=      5-min Rain = 0
KST2 111902Z 18007KT 36/16 A3005 RMK A01 T03560159  RH  031%=      5-min Rain = 0
KST2 111903Z 17005KT 36/16 A3005 RMK A01 T03550158  RH  031%=      5-min Rain = 0
KST2 111904Z 19011KT 35/16 A3005 RMK A01 T03530157  RH  031%=      5-min Rain = 0
KST2 111905Z 16011KT 36/15 A3005 RMK A01 T03580152  RH  029%=      5-min Rain = 0
KST2 111906Z 18010KT 36/15 A3005 RMK A01 T03600149  RH  029%=      5-min Rain = 0
KST2 111907Z 16009KT 36/15 A3005 RMK A01 T03610149  RH  028%=      5-min Rain = 0
KST2 111908Z 15007KT 36/15 A3005 RMK A01 T03610149  RH  028%=      5-min Rain = 0
KST2 111909Z 15011KT 36/15 A3005 RMK A01 T03610150  RH  029%=      5-min Rain = 0
KST2 111910Z 16008KT 36/15 A3005 RMK A01 T03590150  RH  029%=      5-min Rain = 0
KST2 111911Z 18009KT 36/15 A3005 RMK A01 T03590150  RH  029%=      5-min Rain = 0
KST2 111912Z 18012KT 36/16 A3004 RMK A01 T03600157  RH  030%=      5-min Rain = 0
KST2 111913Z 17011KT 37/16 A3004 RMK A01 T03660160  RH  030%=      5-min Rain = 0
KST2 111914Z 17012KT 37/16 A3005 RMK A01 T03710159  RH  029%=      5-min Rain = 0
KST2 111915Z 16010KT 37/16 A3004 RMK A01 T03700161  RH  029%=      5-min Rain = 0
KST2 111916Z 17006KT 36/16 A3005 RMK A01 T03640159  RH  030%=      5-min Rain = 0
KST2 111917Z 17010G15KT 36/16 A3004 RMK A01 T03590161  RH  031%=      5-min Rain = 0
KST2 111918Z 15010KT 36/16 A3004 RMK A01 T03590156  RH  030%=      5-min Rain = 0
KST2 111919Z 16007KT 36/16 A3004 RMK A01 T03580156  RH  030%=      5-min Rain = 0
KST2 111920Z 14008KT 36/16 A3004 RMK A01 T03590158  RH  030%=      5-min Rain = 0
KST2 111921Z 14009KT 36/16 A3004 RMK A01 T03600159  RH  030%=      5-min Rain = 0
KST2 111922Z 15005KT 36/16 A3004 RMK A01 T03580157  RH  030%=      5-min Rain = 0
KST2 111923Z 14005KT 35/16 A3004 RMK A01 T03540158  RH  031%=      5-min Rain = 0
KST2 111924Z 15011KT 35/16 A3004 RMK A01 T03540160  RH  032%=      5-min Rain = 0
KST2 111925Z 17012KT 36/16 A3004 RMK A01 T03590158  RH  030%=      5-min Rain = 0
KST2 111926Z 19011KT 36/16 A3004 RMK A01 T03600155  RH  030%=      5-min Rain = 0
KST2 111927Z 19012KT 36/15 A3004 RMK A01 T03610153  RH  029%=      5-min Rain = 0
KST2 111928Z 20010KT 36/16 A3004 RMK A01 T03590155  RH  030%=      5-min Rain = 0
KST2 111929Z 19009KT 36/16 A3004 RMK A01 T03590155  RH  030%=      5-min Rain = 0
KST2 111930Z 17011KT 36/15 A3004 RMK A01 T03600154  RH  029%=      5-min Rain = 0
KST2 111931Z 17012KT 36/15 A3004 RMK A01 T03620153  RH  029%=      5-min Rain = 0
KST2 111932Z 18011KT 36/15 A3004 RMK A01 T03610151  RH  029%=      5-min Rain = 0
KST2 111933Z 18015G24KT 36/15 A3003 RMK A01 T03610151  RH  029%=      5-min Rain = 0
KST2 111934Z 16012KT 36/15 A3004 RMK A01 T03630153  RH  029%=      5-min Rain = 0
KST2 111935Z 19011KT 36/15 A3004 RMK A01 T03620153  RH  029%=      5-min Rain = 0
KST2 111936Z 18011KT 36/15 A3004 RMK A01 T03620151  RH  028%=      5-min Rain = 0
KST2 111937Z 18009KT 36/15 A3004 RMK A01 T03600150  RH  029%=      5-min Rain = 0
KST2 111938Z 19007KT 36/15 A3004 RMK A01 T03590149  RH  029%=      5-min Rain = 0
KST2 111939Z 17007KT 36/15 A3004 RMK A01 T03580151  RH  029%=      5-min Rain = 0
KST2 111940Z 17010G17KT 36/15 A3004 RMK A01 T03570153  RH  030%=      5-min Rain = 0
KST2 111941Z 16012G19KT 36/16 A3003 RMK A01 T03590158  RH  030%=      5-min Rain = 0
KST2 111942Z 17016KT 36/16 A3003 RMK A01 T03620159  RH  030%=      5-min Rain = 0
KST2 111943Z 16014G19KT 37/16 A3003 RMK A01 T03650159  RH  030%=      5-min Rain = 0
KST2 111944Z 16009KT 36/16 A3004 RMK A01 T03640159  RH  030%=      5-min Rain = 0
KST2 111945Z 16010G15KT 36/16 A3003 RMK A01 T03630159  RH  030%=      5-min Rain = 0
KST2 111946Z 17008KT 36/16 A3003 RMK A01 T03600159  RH  030%=      5-min Rain = 0
KST2 111947Z 17011KT 36/16 A3003 RMK A01 T03640164  RH  031%=      5-min Rain = 0
KST2 111948Z 17013KT 37/16 A3003 RMK A01 T03700163  RH  030%=      5-min Rain = 0
KST2 111949Z 18011KT 37/16 A3003 RMK A01 T03650160  RH  030%=      5-min Rain = 0
KST2 111950Z 18008KT 36/16 A3003 RMK A01 T03590161  RH  031%=      5-min Rain = 0
KST2 111951Z 18010KT 36/16 A3003 RMK A01 T03580160  RH  031%=      5-min Rain = 0
KST2 111952Z 17008KT 36/16 A3003 RMK A01 T03570159  RH  031%=      5-min Rain = 0
KST2 111953Z 17008KT 35/16 A3003 RMK A01 T03540158  RH  031%=      5-min Rain = 0
KST2 111954Z 18014KT 35/16 A3003 RMK A01 T03530159  RH  031%=      5-min Rain = 0
KST2 111955Z 18011KT 36/16 A3003 RMK A01 T03560158  RH  031%=      5-min Rain = 0
KST2 111956Z 18012KT 36/16 A3003 RMK A01 T03570159  RH  031%=      5-min Rain = 0
KST2 111957Z 18012KT 36/16 A3003 RMK A01 T03580162  RH  031%=      5-min Rain = 0
KST2 111958Z 17013KT 36/16 A3003 RMK A01 T03620162  RH  031%=      5-min Rain = 0
KST2 111959Z 16011KT 36/16 A3003 RMK A01 T03620162  RH  031%=      5-min Rain = 0
KST2 112000Z 17011KT 36/16 A3003 RMK A01 T03600163  RH  031%=      5-min Rain = 0
KST2 112001Z 17010KT 36/16 A3003 RMK A01 T03630163  RH  031%=      5-min Rain = 0
KST2 112002Z 17008KT 36/16 A3002 RMK A01 T03600162  RH  031%=      5-min Rain = 0
KST2 112003Z 16012G17KT 36/16 A3002 RMK A01 T03570163  RH  032%=      5-min Rain = 0
KST2 112004Z 16010KT 36/16 A3002 RMK A01 T03560160  RH  031%=      5-min Rain = 0
KST2 112005Z 17010KT 36/16 A3002 RMK A01 T03580158  RH  030%=      5-min Rain = 0
KST2 112006Z 16007KT 36/16 A3002 RMK A01 T03580158  RH  031%=      5-min Rain = 0
KST2 112007Z 17009KT 36/16 A3002 RMK A01 T03590158  RH  030%=      5-min Rain = 0
KST2 112008Z 19009KT 36/16 A3002 RMK A01 T03600159  RH  030%=      5-min Rain = 0
KST2 112009Z 18007KT 36/16 A3002 RMK A01 T03600158  RH  030%=      5-min Rain = 0
KST2 112010Z 17014KT 36/16 A3002 RMK A01 T03600162  RH  031%=      5-min Rain = 0
KST2 112011Z 16012KT 36/16 A3002 RMK A01 T03620162  RH  031%=      5-min Rain = 0
KST2 112012Z 17009KT 36/16 A3002 RMK A01 T03610164  RH  031%=      5-min Rain = 0
KST2 112013Z 18005KT 36/16 A3002 RMK A01 T03590162  RH  031%=      5-min Rain = 0
KST2 112014Z 14008G14KT 36/17 A3002 RMK A01 T03570165  RH  032%=      5-min Rain = 0
KST2 112015Z 15011KT 36/17 A3001 RMK A01 T03610167  RH  032%=      5-min Rain = 0
KST2 112016Z 18013KT 37/17 A3001 RMK A01 T03650165  RH  031%=      5-min Rain = 0
KST2 112017Z 18013KT 37/16 A3001 RMK A01 T03650164  RH  030%=      5-min Rain = 0
KST2 112018Z 18011KT 37/16 A3002 RMK A01 T03650163  RH  030%=      5-min Rain = 0
KST2 112019Z 18010KT 37/16 A3002 RMK A01 T03650163  RH  030%=      5-min Rain = 0
KST2 112020Z 19008KT 37/16 A3002 RMK A01 T03650163  RH  030%=      5-min Rain = 0
KST2 112021Z 20007KT 36/16 A3001 RMK A01 T03610164  RH  031%=      5-min Rain = 0
KST2 112022Z 15008KT 36/17 A3001 RMK A01 T03590166  RH  032%=      5-min Rain = 0
KST2 112023Z 16012KT 36/17 A3001 RMK A01 T03620166  RH  031%=      5-min Rain = 0
KST2 112024Z 15011KT 36/17 A3001 RMK A01 T03630165  RH  031%=      5-min Rain = 0
KST2 112025Z 14009KT 36/16 A3001 RMK A01 T03630164  RH  031%=      5-min Rain = 0
KST2 112026Z 14009KT 36/17 A3001 RMK A01 T03640165  RH  031%=      5-min Rain = 0
KST2 112027Z 14009G15KT 37/17 A3001 RMK A01 T03650166  RH  031%=      5-min Rain = 0
KST2 112028Z 15009KT 37/17 A3001 RMK A01 T03670168  RH  031%=      5-min Rain = 0
KST2 112029Z 17012KT 37/16 A3001 RMK A01 T03680161  RH  030%=      5-min Rain = 0
KST2 112030Z 16010KT 37/16 A3001 RMK A01 T03670160  RH  029%=      5-min Rain = 0
KST2 112031Z 18013KT 37/16 A3001 RMK A01 T03650163  RH  030%=      5-min Rain = 0
KST2 112032Z 18013KT 36/16 A3001 RMK A01 T03640162  RH  030%=      5-min Rain = 0
KST2 112033Z 19009KT 36/16 A3001 RMK A01 T03610162  RH  031%=      5-min Rain = 0
KST2 112034Z 17009KT 36/16 A3001 RMK A01 T03620163  RH  031%=      5-min Rain = 0
KST2 112035Z 18008KT 36/16 A3001 RMK A01 T03630163  RH  031%=      5-min Rain = 0
KST2 112036Z 19008KT 36/16 A3001 RMK A01 T03610164  RH  031%=      5-min Rain = 0
KST2 112037Z 19007KT 36/16 A3001 RMK A01 T03600164  RH  031%=      5-min Rain = 0
KST2 112038Z 19012KT 36/17 A3001 RMK A01 T03590165  RH  032%=      5-min Rain = 0
KST2 112039Z 19009KT 36/17 A30 RMK A01 T03620166  RH  031%=      5-min Rain = 0
KST2 112040Z 19013KT 37/17 A30 RMK A01 T03660166  RH  031%=      5-min Rain = 0
KST2 112041Z 19010KT 37/17 A30 RMK A01 T03690166  RH  030%=      5-min Rain = 0
KST2 112042Z 19010KT 37/17 A30 RMK A01 T03710166  RH  030%=      5-min Rain = 0
KST2 112043Z 17012KT 37/17 A30 RMK A01 T03700166  RH  030%=      5-min Rain = 0
KST2 112044Z 17013KT 37/16 A30 RMK A01 T03710164  RH  030%=      5-min Rain = 0
KST2 112045Z 16011KT 37/16 A30 RMK A01 T03700164  RH  030%=      5-min Rain = 0
KST2 112046Z 15009KT 37/16 A30 RMK A01 T03690164  RH  030%=      5-min Rain = 0
KST2 112047Z 15011KT 37/16 A30 RMK A01 T03730164  RH  029%=      5-min Rain = 0
KST2 112048Z 17010KT 37/17 A30 RMK A01 T03730166  RH  030%=      5-min Rain = 0
KST2 112049Z 17011KT 37/16 A30 RMK A01 T03720164  RH  029%=      5-min Rain = 0
KST2 112050Z 19007KT 37/17 A30 RMK A01 T03660165  RH  031%=      5-min Rain = 0
KST2 112051Z 19005KT 36/17 A30 RMK A01 T03640167  RH  031%=      5-min Rain = 0
KST2 112052Z 16008G13KT 36/17 A30 RMK A01 T03640167  RH  031%=      5-min Rain = 0
KST2 112053Z 15013KT 37/17 A30 RMK A01 T03650166  RH  031%=      5-min Rain = 0
KST2 112054Z 15015KT 37/17 A30 RMK A01 T03680165  RH  030%=      5-min Rain = 0
KST2 112055Z 16013KT 37/16 A30 RMK A01 T03690164  RH  030%=      5-min Rain = 0
KST2 112056Z 17009KT 37/16 A30 RMK A01 T03680164  RH  030%=      5-min Rain = 0
KST2 112057Z 17009KT 37/16 A30 RMK A01 T03700164  RH  030%=      5-min Rain = 0
KST2 112058Z 19009KT 37/17 A30 RMK A01 T03700165  RH  030%=      5-min Rain = 0
KST2 112059Z 18009KT 37/16 A30 RMK A01 T03690163  RH  030%=      5-min Rain = 0
KST2 112100Z 18005KT 37/16 A30 RMK A01 T03670163  RH  030%=      5-min Rain = 0
KST2 112101Z 15004KT 36/16 A30 RMK A01 T03640163  RH  031%=      5-min Rain = 0
KST2 112102Z 15005KT 36/16 A30 RMK A01 T03610163  RH  031%=      5-min Rain = 0
KST2 112103Z 17008KT 36/17 A30 RMK A01 T03620165  RH  031%=      5-min Rain = 0
KST2 112104Z 19011KT 37/16 A2999 RMK A01 T03650163  RH  030%=      5-min Rain = 0
KST2 112105Z 17014KT 37/16 A2999 RMK A01 T03670162  RH  030%=      5-min Rain = 0
KST2 112106Z 19013KT 37/16 A2999 RMK A01 T03680159  RH  029%=      5-min Rain = 0
KST2 112107Z 19012KT 37/16 A2999 RMK A01 T03680161  RH  030%=      5-min Rain = 0
KST2 112108Z 18008KT 37/16 A2999 RMK A01 T03660160  RH  029%=      5-min Rain = 0
KST2 112109Z 18007KT 36/16 A2999 RMK A01 T03630158  RH  030%=      5-min Rain = 0
KST2 112110Z 19006KT 36/16 A2999 RMK A01 T03610157  RH  030%=      5-min Rain = 0
KST2 112111Z 20006KT 36/16 A2999 RMK A01 T03610159  RH  030%=      5-min Rain = 0
KST2 112112Z 19008KT 37/16 A2999 RMK A01 T03650160  RH  030%=      5-min Rain = 0
KST2 112113Z 18007KT 37/16 A2999 RMK A01 T03650158  RH  029%=      5-min Rain = 0
KST2 112114Z 19010KT 36/16 A2999 RMK A01 T03640162  RH  030%=      5-min Rain = 0
KST2 112115Z 20011KT 37/16 A2999 RMK A01 T03660164  RH  030%=      5-min Rain = 0
KST2 112116Z 21009KT 37/16 A2999 RMK A01 T03660164  RH  030%=      5-min Rain = 0
KST2 112117Z 19012KT 37/17 A2998 RMK A01 T03660165  RH  031%=      5-min Rain = 0
KST2 112118Z 19012KT 37/16 A2999 RMK A01 T03660163  RH  030%=      5-min Rain = 0
KST2 112119Z 18010KT 36/16 A2998 RMK A01 T03640161  RH  030%=      5-min Rain = 0
KST2 112120Z 20008KT 36/16 A2998 RMK A01 T03630162  RH  030%=      5-min Rain = 0
KST2 112121Z 20009KT 36/16 A2998 RMK A01 T03630163  RH  031%=      5-min Rain = 0
KST2 112122Z 21012KT 37/16 A2998 RMK A01 T03670162  RH  030%=      5-min Rain = 0
KST2 112123Z 20009KT 37/16 A2998 RMK A01 T03680164  RH  030%=      5-min Rain = 0
KST2 112124Z 18007KT 37/16 A2998 RMK A01 T03690162  RH  029%=      5-min Rain = 0
KST2 112125Z 19006KT 37/16 A2998 RMK A01 T03680163  RH  030%=      5-min Rain = 0
KST2 112126Z 19008KT 37/17 A2998 RMK A01 T03680165  RH  030%=      5-min Rain = 0
KST2 112127Z 16012KT 37/17 A2998 RMK A01 T03710166  RH  030%=      5-min Rain = 0
KST2 112128Z 16010G15KT 37/16 A2998 RMK A01 T03730162  RH  029%=      5-min Rain = 0
KST2 112129Z 17008KT 37/16 A2998 RMK A01 T03700161  RH  029%=      5-min Rain = 0
KST2 112130Z 18011KT 37/16 A2998 RMK A01 T03700164  RH  030%=      5-min Rain = 0
KST2 112131Z 18013KT 37/16 A2998 RMK A01 T03700164  RH  030%=      5-min Rain = 0
KST2 112132Z 20011KT 37/16 A2998 RMK A01 T03670164  RH  030%=      5-min Rain = 0
KST2 112133Z 21011KT 37/16 A2998 RMK A01 T03690161  RH  029%=      5-min Rain = 0
KST2 112134Z 20010KT 37/16 A2998 RMK A01 T03670162  RH  030%=      5-min Rain = 0
KST2 112135Z 18008KT 37/16 A2998 RMK A01 T03660163  RH  030%=      5-min Rain = 0
KST2 112136Z 18007KT 37/16 A2998 RMK A01 T03660164  RH  030%=      5-min Rain = 0
KST2 112137Z 19008KT 37/16 A2998 RMK A01 T03660163  RH  030%=      5-min Rain = 0
KST2 112138Z 19009KT 37/16 A2998 RMK A01 T03660160  RH  030%=      5-min Rain = 0
KST2 112139Z 18009KT 37/16 A2998 RMK A01 T03650160  RH  030%=      5-min Rain = 0
KST2 112140Z 17011KT 37/17 A2998 RMK A01 T03690166  RH  030%=      5-min Rain = 0
KST2 112141Z 19011KT 38/16 A2998 RMK A01 T03750163  RH  029%=      5-min Rain = 0
KST2 112142Z 19009KT 37/16 A2998 RMK A01 T03730162  RH  029%=      5-min Rain = 0
KST2 112143Z 19008KT 37/16 A2998 RMK A01 T03700163  RH  029%=      5-min Rain = 0
KST2 112144Z 19006KT 37/16 A2998 RMK A01 T03680164  RH  030%=      5-min Rain = 0
KST2 112145Z 18009KT 37/16 A2998 RMK A01 T03670163  RH  030%=      5-min Rain = 0
KST2 112146Z 18010KT 37/16 A2997 RMK A01 T03690164  RH  030%=      5-min Rain = 0
KST2 112147Z 19007KT 37/17 A2997 RMK A01 T03670165  RH  030%=      5-min Rain = 0
KST2 112148Z 17007KT 37/17 A2997 RMK A01 T03680167  RH  030%=      5-min Rain = 0
KST2 112149Z 16007G12KT 37/17 A2997 RMK A01 T03720165  RH  029%=      5-min Rain = 0
KST2 112150Z 18006KT 37/16 A2997 RMK A01 T03680163  RH  030%=      5-min Rain = 0
KST2 112151Z 17009KT 37/17 A2997 RMK A01 T03660166  RH  031%=      5-min Rain = 0
KST2 112152Z 14008KT 37/17 A2997 RMK A01 T03660166  RH  031%=      5-min Rain = 0
KST2 112153Z 16007KT 37/17 A2997 RMK A01 T03680166  RH  030%=      5-min Rain = 0
KST2 112154Z 18011KT 37/17 A2997 RMK A01 T03730165  RH  029%=      5-min Rain = 0
KST2 112155Z 19012KT 38/17 A2997 RMK A01 T03770166  RH  029%=      5-min Rain = 0
KST2 112156Z 18011KT 38/17 A2997 RMK A01 T03790166  RH  029%=      5-min Rain = 0
KST2 112157Z 17012KT 38/16 A2997 RMK A01 T03800161  RH  028%=      5-min Rain = 0
KST2 112158Z 16012KT 38/16 A2997 RMK A01 T03790160  RH  028%=      5-min Rain = 0
KST2 112159Z 15011KT 38/16 A2997 RMK A01 T03760162  RH  028%=      5-min Rain = 0
KST2 112200Z 14011KT 38/16 A2997 RMK A01 T03760161  RH  028%=      5-min Rain = 0
KST2 112201Z 15009KT 37/16 A2997 RMK A01 T03730158  RH  028%=      5-min Rain = 0
KST2 112202Z 14010KT 37/16 A2997 RMK A01 T03700158  RH  029%=      5-min Rain = 0
KST2 112203Z 13010KT 37/16 A2997 RMK A01 T03710157  RH  028%=      5-min Rain = 0
KST2 112204Z 14011KT 37/16 A2997 RMK A01 T03700160  RH  029%=      5-min Rain = 0
KST2 112205Z 15010KT 37/16 A2997 RMK A01 T03710161  RH  029%=      5-min Rain = 0
KST2 112206Z 15012KT 37/16 A2996 RMK A01 T03690162  RH  029%=      5-min Rain = 0
KST2 112207Z 14010KT 37/16 A2996 RMK A01 T03680162  RH  030%=      5-min Rain = 0
KST2 112208Z 17009KT 37/16 A2996 RMK A01 T03690162  RH  030%=      5-min Rain = 0
KST2 112209Z 19012KT 37/16 A2996 RMK A01 T03700163  RH  030%=      5-min Rain = 0
KST2 112210Z 19007KT 37/16 A2996 RMK A01 T03690163  RH  030%=      5-min Rain = 0
KST2 112211Z 18007KT 37/16 A2996 RMK A01 T03680162  RH  030%=      5-min Rain = 0
KST2 112212Z 18007KT 37/16 A2996 RMK A01 T03670162  RH  030%=      5-min Rain = 0
KST2 112213Z 19008KT 37/16 A2996 RMK A01 T03670161  RH  030%=      5-min Rain = 0
KST2 112214Z 18009KT 37/16 A2996 RMK A01 T03660161  RH  030%=      5-min Rain = 0
KST2 112215Z 18010KT 37/16 A2996 RMK A01 T03670161  RH  030%=      5-min Rain = 0
KST2 112216Z 17009KT 37/16 A2996 RMK A01 T03700160  RH  029%=      5-min Rain = 0
KST2 112217Z 16011KT 37/16 A2996 RMK A01 T03690160  RH  029%=      5-min Rain = 0
KST2 112218Z 17010KT 37/16 A2996 RMK A01 T03690158  RH  029%=      5-min Rain = 0
KST2 112219Z 18011KT 37/16 A2996 RMK A01 T03700159  RH  029%=      5-min Rain = 0
KST2 112220Z 18012KT 37/16 A2996 RMK A01 T03700160  RH  029%=      5-min Rain = 0
KST2 112221Z 18011KT 37/15 A2996 RMK A01 T03720153  RH  027%=      5-min Rain = 0
KST2 112222Z 19010KT 37/16 A2996 RMK A01 T03720157  RH  028%=      5-min Rain = 0
KST2 112223Z 18011KT 37/16 A2996 RMK A01 T03710158  RH  028%=      5-min Rain = 0
KST2 112224Z 19008KT 37/16 A2996 RMK A01 T03700156  RH  028%=      5-min Rain = 0
KST2 112225Z 16006KT 37/16 A2996 RMK A01 T03660158  RH  029%=      5-min Rain = 0
KST2 112226Z 17007KT 37/16 A2996 RMK A01 T03670160  RH  029%=      5-min Rain = 0
KST2 112227Z 16006KT 37/16 A2996 RMK A01 T03680160  RH  029%=      5-min Rain = 0
KST2 112228Z 18008KT 37/16 A2996 RMK A01 T03690161  RH  029%=      5-min Rain = 0
KST2 112229Z 16009KT 37/16 A2996 RMK A01 T03710161  RH  029%=      5-min Rain = 0
KST2 112230Z 17010KT 37/16 A2996 RMK A01 T03710161  RH  029%=      5-min Rain = 0
KST2 112231Z 19010KT 37/16 A2996 RMK A01 T03710162  RH  029%=      5-min Rain = 0
KST2 112232Z 20007KT 37/16 A2996 RMK A01 T03700161  RH  029%=      5-min Rain = 0
KST2 112233Z 19008KT 37/16 A2996 RMK A01 T03680162  RH  030%=      5-min Rain = 0
KST2 112234Z 18009KT 37/16 A2996 RMK A01 T03690162  RH  029%=      5-min Rain = 0
KST2 112235Z 15009G15KT 37/17 A2995 RMK A01 T03710165  RH  030%=      5-min Rain = 0
KST2 112236Z 16013KT 38/17 A2995 RMK A01 T03750166  RH  029%=      5-min Rain = 0
KST2 112237Z 17011KT 38/16 A2996 RMK A01 T03770163  RH  029%=      5-min Rain = 0
KST2 112238Z 15012KT 37/16 A2995 RMK A01 T03740164  RH  029%=      5-min Rain = 0
KST2 112239Z 15011KT 37/16 A2995 RMK A01 T03700162  RH  029%=      5-min Rain = 0
KST2 112240Z 15011KT 37/16 A2995 RMK A01 T03690162  RH  029%=      5-min Rain = 0
KST2 112241Z 16012KT 37/16 A2995 RMK A01 T03680160  RH  029%=      5-min Rain = 0
KST2 112242Z 14008KT 37/16 A2996 RMK A01 T03680158  RH  029%=      5-min Rain = 0
KST2 112243Z 14007KT 37/16 A2995 RMK A01 T03680156  RH  029%=      5-min Rain = 0
KST2 112244Z 15008KT 37/16 A2995 RMK A01 T03680159  RH  029%=      5-min Rain = 0
KST2 112245Z 16008KT 37/16 A2995 RMK A01 T03710160  RH  029%=      5-min Rain = 0
KST2 112246Z 17009KT 37/16 A2995 RMK A01 T03700157  RH  028%=      5-min Rain = 0
KST2 112247Z 15011KT 37/16 A2995 RMK A01 T03700157  RH  028%=      5-min Rain = 0
KST2 112248Z 17011KT 37/16 A2995 RMK A01 T03710157  RH  028%=      5-min Rain = 0
KST2 112249Z 18010KT 37/16 A2995 RMK A01 T03700159  RH  029%=      5-min Rain = 0
KST2 112250Z 17010KT 37/16 A2995 RMK A01 T03700158  RH  029%=      5-min Rain = 0
KST2 112251Z 17008KT 37/16 A2995 RMK A01 T03700160  RH  029%=      5-min Rain = 0
KST2 112252Z 17008KT 37/16 A2995 RMK A01 T03700159  RH  029%=      5-min Rain = 0
KST2 112253Z 19009KT 37/16 A2995 RMK A01 T03690161  RH  029%=      5-min Rain = 0
KST2 112254Z 18009KT 37/16 A2995 RMK A01 T03680162  RH  030%=      5-min Rain = 0
KST2 112255Z 16013KT 37/16 A2995 RMK A01 T03700161  RH  029%=      5-min Rain = 0
KST2 112256Z 15013KT 37/16 A2995 RMK A01 T03720162  RH  029%=      5-min Rain = 0
KST2 112257Z 16010KT 37/16 A2995 RMK A01 T03720162  RH  029%=      5-min Rain = 0
KST2 112258Z 16009KT 37/16 A2995 RMK A01 T03720161  RH  029%=      5-min Rain = 0
KST2 112259Z 17012KT 37/16 A2995 RMK A01 T03740160  RH  028%=      5-min Rain = 0
KST2 112300Z 16014KT 37/16 A2995 RMK A01 T03730162  RH  029%=      5-min Rain = 0
KST2 112301Z 16012KT 37/16 A2995 RMK A01 T03730161  RH  029%=      5-min Rain = 0
KST2 112302Z 14013KT 37/16 A2995 RMK A01 T03700162  RH  029%=      5-min Rain = 0
KST2 112303Z 16012KT 37/16 A2995 RMK A01 T03700162  RH  029%=      5-min Rain = 0
KST2 112304Z 14010KT 37/16 A2995 RMK A01 T03700162  RH  029%=      5-min Rain = 0
KST2 112305Z 15008KT 37/16 A2995 RMK A01 T03690163  RH  030%=      5-min Rain = 0
KST2 112306Z 17010KT 37/16 A2995 RMK A01 T03690162  RH  029%=      5-min Rain = 0
KST2 112307Z 17009KT 37/16 A2995 RMK A01 T03670161  RH  030%=      5-min Rain = 0
KST2 112308Z 17008KT 37/16 A2995 RMK A01 T03660161  RH  030%=      5-min Rain = 0
KST2 112309Z 17008KT 37/16 A2995 RMK A01 T03650161  RH  030%=      5-min Rain = 0
KST2 112310Z 16007KT 36/16 A2995 RMK A01 T03640161  RH  030%=      5-min Rain = 0
KST2 112311Z 15008KT 36/16 A2995 RMK A01 T03640162  RH  030%=      5-min Rain = 0
KST2 112312Z 15007KT 36/16 A2995 RMK A01 T03630160  RH  030%=      5-min Rain = 0
KST2 112313Z 15006KT 36/16 A2995 RMK A01 T03610161  RH  030%=      5-min Rain = 0
KST2 112314Z 14007KT 36/16 A2995 RMK A01 T03610161  RH  031%=      5-min Rain = 0
KST2 112315Z 15007KT 36/16 A2995 RMK A01 T03610161  RH  031%=      5-min Rain = 0
KST2 112316Z 14006KT 36/16 A2995 RMK A01 T03610161  RH  031%=      5-min Rain = 0
KST2 112317Z 12004KT 36/16 A2995 RMK A01 T03610161  RH  031%=      5-min Rain = 0
KST2 112318Z 12008KT 36/16 A2995 RMK A01 T03620163  RH  031%=      5-min Rain = 0
KST2 112319Z 12008KT 36/16 A2994 RMK A01 T03630162  RH  030%=      5-min Rain = 0
KST2 112320Z 14008KT 36/16 A2994 RMK A01 T03630162  RH  030%=      5-min Rain = 0
KST2 112321Z 14011KT 37/16 A2994 RMK A01 T03650164  RH  030%=      5-min Rain = 0
KST2 112322Z 13010KT 37/17 A2994 RMK A01 T03680165  RH  030%=      5-min Rain = 0
KST2 112323Z 15009KT 37/17 A2994 RMK A01 T03680166  RH  030%=      5-min Rain = 0
KST2 112324Z 15009KT 37/17 A2994 RMK A01 T03690165  RH  030%=      5-min Rain = 0
KST2 112325Z 17010KT 37/17 A2994 RMK A01 T03700165  RH  030%=      5-min Rain = 0
KST2 112326Z 18012KT 37/16 A2994 RMK A01 T03710162  RH  029%=      5-min Rain = 0
KST2 112327Z 18011KT 37/16 A2994 RMK A01 T03700161  RH  029%=      5-min Rain = 0
KST2 112328Z 18009KT 37/16 A2994 RMK A01 T03670161  RH  029%=      5-min Rain = 0
KST2 112329Z 19010KT 37/16 A2994 RMK A01 T03660161  RH  030%=      5-min Rain = 0
KST2 112330Z 19011KT 37/16 A2994 RMK A01 T03660160  RH  030%=      5-min Rain = 0
KST2 112331Z 19011KT 37/16 A2994 RMK A01 T03680161  RH  030%=      5-min Rain = 0
KST2 112332Z 20009KT 37/16 A2994 RMK A01 T03660162  RH  030%=      5-min Rain = 0
KST2 112333Z 19008KT 37/16 A2994 RMK A01 T03660162  RH  030%=      5-min Rain = 0
KST2 112334Z 17010KT 37/16 A2994 RMK A01 T03670161  RH  030%=      5-min Rain = 0
KST2 112335Z 18008KT 37/16 A2994 RMK A01 T03680161  RH  029%=      5-min Rain = 0
KST2 112336Z 18007KT 37/16 A2994 RMK A01 T03680160  RH  029%=      5-min Rain = 0
KST2 112337Z 18008KT 37/16 A2994 RMK A01 T03680160  RH  029%=      5-min Rain = 0
KST2 112338Z 16006KT 37/16 A2994 RMK A01 T03680160  RH  029%=      5-min Rain = 0
KST2 112339Z 17005KT 37/16 A2994 RMK A01 T03670160  RH  030%=      5-min Rain = 0
KST2 112340Z 18005KT 37/16 A2994 RMK A01 T03660160  RH  030%=      5-min Rain = 0
KST2 112341Z 16005KT 37/16 A2994 RMK A01 T03650160  RH  030%=      5-min Rain = 0
KST2 112342Z 18006KT 37/16 A2994 RMK A01 T03660161  RH  030%=      5-min Rain = 0
KST2 112343Z 18007KT 37/16 A2994 RMK A01 T03680163  RH  030%=      5-min Rain = 0
KST2 112344Z 19008KT 37/16 A2994 RMK A01 T03700164  RH  030%=      5-min Rain = 0
KST2 112345Z 19009KT 37/16 A2994 RMK A01 T03710164  RH  029%=      5-min Rain = 0
KST2 112346Z 18010KT 37/16 A2994 RMK A01 T03710163  RH  029%=      5-min Rain = 0
KST2 112347Z 18011KT 37/16 A2994 RMK A01 T03700160  RH  029%=      5-min Rain = 0
KST2 112348Z 17011KT 37/16 A2994 RMK A01 T03690160  RH  029%=      5-min Rain = 0
KST2 112349Z 15010KT 37/16 A2994 RMK A01 T03680160  RH  029%=      5-min Rain = 0
KST2 112350Z 14011KT 37/16 A2994 RMK A01 T03670161  RH  030%=      5-min Rain = 0
KST2 112351Z 16013KT 37/16 A2994 RMK A01 T03690162  RH  030%=      5-min Rain = 0
KST2 112352Z 17011KT 37/16 A2994 RMK A01 T03690161  RH  029%=      5-min Rain = 0
KST2 112353Z 16011KT 37/16 A2994 RMK A01 T03690161  RH  029%=      5-min Rain = 0
KST2 112354Z 14014KT 37/16 A2994 RMK A01 T03700161  RH  029%=      5-min Rain = 0
KST2 112355Z 14012KT 37/16 A2994 RMK A01 T03690160  RH  029%=      5-min Rain = 0
KST2 112356Z 13010KT 37/16 A2994 RMK A01 T03680160  RH  029%=      5-min Rain = 0
KST2 112357Z 13012KT 37/16 A2994 RMK A01 T03670161  RH  029%=      5-min Rain = 0
KST2 112358Z 14011KT 37/16 A2994 RMK A01 T03670161  RH  030%=      5-min Rain = 0
KST2 112359Z 13013KT 37/16 A2994 RMK A01 T03660161  RH  030%=      5-min Rain = 0
KST2 120000Z 13013KT 37/16 A2994 RMK A01 T03660160  RH  030%=      5-min Rain = 0
KST2 120001Z 14014KT 37/16 A2994 RMK A01 T03670160  RH  030%=      5-min Rain = 0
KST2 120002Z 14013KT 37/16 A2994 RMK A01 T03660160  RH  030%=      5-min Rain = 0
KST2 120003Z 15012KT 37/16 A2994 RMK A01 T03650160  RH  030%=      5-min Rain = 0
KST2 120004Z 15012KT 36/16 A2994 RMK A01 T03640159  RH  030%=      5-min Rain = 0
KST2 120005Z 15009KT 36/16 A2994 RMK A01 T03640159  RH  030%=      5-min Rain = 0
KST2 120006Z 16008KT 36/16 A2994 RMK A01 T03640159  RH  030%=      5-min Rain = 0
KST2 120007Z 16008KT 36/16 A2994 RMK A01 T03640161  RH  030%=      5-min Rain = 0
KST2 120008Z 15010KT 37/16 A2994 RMK A01 T03660160  RH  030%=      5-min Rain = 0
KST2 120009Z 14007KT 37/16 A2994 RMK A01 T03660159  RH  030%=      5-min Rain = 0
KST2 120010Z 13007KT 37/16 A2994 RMK A01 T03650160  RH  030%=      5-min Rain = 0
KST2 120011Z 13008KT 37/16 A2994 RMK A01 T03650160  RH  030%=      5-min Rain = 0
KST2 120012Z 12008KT 37/16 A2994 RMK A01 T03650161  RH  030%=      5-min Rain = 0
KST2 120013Z 12007KT 36/16 A2994 RMK A01 T03640160  RH  030%=      5-min Rain = 0
KST2 120014Z 13007KT 36/16 A2994 RMK A01 T03640161  RH  030%=      5-min Rain = 0
KST2 120015Z 13005KT 37/16 A2994 RMK A01 T03650162  RH  030%=      5-min Rain = 0
KST2 120016Z 12007KT 37/16 A2994 RMK A01 T03670161  RH  030%=      5-min Rain = 0
KST2 120017Z 14007KT 37/16 A2994 RMK A01 T03670161  RH  030%=      5-min Rain = 0
KST2 120018Z 15005KT 37/16 A2994 RMK A01 T03660161  RH  030%=      5-min Rain = 0
KST2 120019Z 18006KT 37/16 A2994 RMK A01 T03650160  RH  030%=      5-min Rain = 0
KST2 120020Z 18008KT 36/16 A2994 RMK A01 T03640160  RH  030%=      5-min Rain = 0
KST2 120021Z 15011KT 36/16 A2994 RMK A01 T03640161  RH  030%=      5-min Rain = 0
KST2 120022Z 13012KT 36/16 A2994 RMK A01 T03640161  RH  030%=      5-min Rain = 0
KST2 120023Z 14011KT 37/16 A2994 RMK A01 T03650161  RH  030%=      5-min Rain = 0
KST2 120024Z 13011KT 36/16 A2994 RMK A01 T03640161  RH  030%=      5-min Rain = 0
KST2 120025Z 15012KT 36/16 A2994 RMK A01 T03640161  RH  030%=      5-min Rain = 0
KST2 120026Z 15012KT 36/16 A2994 RMK A01 T03640162  RH  030%=      5-min Rain = 0
KST2 120027Z 14011KT 36/16 A2994 RMK A01 T03640160  RH  030%=      5-min Rain = 0
KST2 120028Z 15010KT 36/16 A2994 RMK A01 T03640160  RH  030%=      5-min Rain = 0
KST2 120029Z 15010KT 36/16 A2994 RMK A01 T03640160  RH  030%=      5-min Rain = 0
KST2 120030Z 16009KT 36/16 A2994 RMK A01 T03640160  RH  030%=      5-min Rain = 0
KST2 120031Z 15009KT 36/16 A2994 RMK A01 T03620160  RH  030%=      5-min Rain = 0
KST2 120032Z 15010KT 36/16 A2994 RMK A01 T03610160  RH  030%=      5-min Rain = 0
KST2 120033Z 15009KT 36/16 A2994 RMK A01 T03620161  RH  030%=      5-min Rain = 0
KST2 120034Z 14011KT 36/16 A2994 RMK A01 T03610160  RH  030%=      5-min Rain = 0
KST2 120035Z 14011KT 36/16 A2994 RMK A01 T03610161  RH  030%=      5-min Rain = 0
KST2 120036Z 14012KT 36/16 A2995 RMK A01 T03610161  RH  031%=      5-min Rain = 0
KST2 120037Z 14011KT 36/16 A2995 RMK A01 T03600160  RH  031%=      5-min Rain = 0
KST2 120038Z 14011KT 36/16 A2995 RMK A01 T03590161  RH  031%=      5-min Rain = 0
KST2 120039Z 13013KT 36/17 A2995 RMK A01 T03590165  RH  032%=      5-min Rain = 0
KST2 120040Z 12011KT 36/17 A2995 RMK A01 T03590170  RH  033%=      5-min Rain = 0
KST2 120041Z 12010KT 36/17 A2995 RMK A01 T03580173  RH  034%=      5-min Rain = 0
KST2 120042Z 13012KT 36/18 A2995 RMK A01 T03570175  RH  034%=      5-min Rain = 0
KST2 120043Z 13012KT 36/18 A2995 RMK A01 T03570176  RH  034%=      5-min Rain = 0
KST2 120044Z 13011KT 36/18 A2995 RMK A01 T03570177  RH  035%=      5-min Rain = 0
KST2 120045Z 13012KT 36/18 A2995 RMK A01 T03560177  RH  035%=      5-min Rain = 0
KST2 120046Z 13012KT 36/18 A2995 RMK A01 T03560178  RH  035%=      5-min Rain = 0
KST2 120047Z 12013KT 36/18 A2995 RMK A01 T03560177  RH  035%=      5-min Rain = 0
KST2 120048Z 12012KT 36/18 A2995 RMK A01 T03550177  RH  035%=      5-min Rain = 0
KST2 120049Z 12015KT 35/18 A2995 RMK A01 T03540176  RH  035%=      5-min Rain = 0
KST2 120050Z 13014KT 35/18 A2995 RMK A01 T03540176  RH  035%=      5-min Rain = 0
KST2 120051Z 13013KT 35/18 A2995 RMK A01 T03530177  RH  035%=      5-min Rain = 0
KST2 120052Z 13013KT 35/18 A2995 RMK A01 T03540177  RH  035%=      5-min Rain = 0
KST2 120053Z 13013KT 35/18 A2995 RMK A01 T03530177  RH  035%=      5-min Rain = 0
KST2 120054Z 12013KT 35/18 A2995 RMK A01 T03530178  RH  035%=      5-min Rain = 0
KST2 120055Z 12013KT 35/18 A2995 RMK A01 T03530179  RH  036%=      5-min Rain = 0
KST2 120056Z 13015KT 35/18 A2995 RMK A01 T03520179  RH  036%=      5-min Rain = 0
KST2 120057Z 13015KT 35/18 A2995 RMK A01 T03510179  RH  036%=      5-min Rain = 0
KST2 120058Z 13014KT 35/18 A2995 RMK A01 T03500179  RH  036%=      5-min Rain = 0
KST2 120059Z 12013KT 35/18 A2995 RMK A01 T03500179  RH  036%=      5-min Rain = 0
KST2 120100Z 12013KT 35/18 A2995 RMK A01 T03500179  RH  036%=      5-min Rain = 0
KST2 120101Z 12011KT 35/18 A2995 RMK A01 T03500178  RH  036%=      5-min Rain = 0
KST2 120102Z 13012KT 35/18 A2995 RMK A01 T03500178  RH  036%=      5-min Rain = 0
KST2 120103Z 14010KT 35/18 A2995 RMK A01 T03500178  RH  036%=      5-min Rain = 0
KST2 120104Z 14014KT 35/18 A2995 RMK A01 T03500179  RH  036%=      5-min Rain = 0
KST2 120105Z 13013KT 35/18 A2995 RMK A01 T03500180  RH  037%=      5-min Rain = 0
KST2 120106Z 14012KT 35/18 A2995 RMK A01 T03490181  RH  037%=      5-min Rain = 0
KST2 120107Z 14013KT 35/18 A2995 RMK A01 T03490181  RH  037%=      5-min Rain = 0
KST2 120108Z 14014KT 35/18 A2995 RMK A01 T03480181  RH  037%=      5-min Rain = 0
KST2 120109Z 13013KT 35/18 A2995 RMK A01 T03480181  RH  037%=      5-min Rain = 0
KST2 120110Z 14015KT 35/18 A2995 RMK A01 T03470181  RH  037%=      5-min Rain = 0
KST2 120111Z 14015KT 35/18 A2996 RMK A01 T03460180  RH  037%=      5-min Rain = 0
KST2 120112Z 13014KT 35/18 A2996 RMK A01 T03460181  RH  038%=      5-min Rain = 0
KST2 120113Z 13011KT 35/18 A2996 RMK A01 T03460181  RH  038%=      5-min Rain = 0
KST2 120114Z 13011KT 35/18 A2996 RMK A01 T03450182  RH  038%=      5-min Rain = 0
KST2 120115Z 13012KT 35/18 A2996 RMK A01 T03450183  RH  038%=      5-min Rain = 0
KST2 120116Z 13012KT 35/19 A2996 RMK A01 T03450186  RH  039%=      5-min Rain = 0
KST2 120117Z 12015KT 35/19 A2996 RMK A01 T03450187  RH  039%=      5-min Rain = 0
KST2 120118Z 12013KT 34/19 A2996 RMK A01 T03440187  RH  040%=      5-min Rain = 0
KST2 120119Z 12016KT 34/19 A2996 RMK A01 T03430187  RH  040%=      5-min Rain = 0
KST2 120120Z 12016KT 34/19 A2996 RMK A01 T03420187  RH  040%=      5-min Rain = 0
KST2 120121Z 12016KT 34/19 A2996 RMK A01 T03410187  RH  040%=      5-min Rain = 0
KST2 120122Z 12016KT 34/19 A2996 RMK A01 T03400187  RH  040%=      5-min Rain = 0
KST2 120123Z 12016KT 34/19 A2996 RMK A01 T03400187  RH  040%=      5-min Rain = 0
KST2 120124Z 12017KT 34/19 A2996 RMK A01 T03390186  RH  040%=      5-min Rain = 0
KST2 120125Z 13015KT 34/19 A2996 RMK A01 T03390186  RH  041%=      5-min Rain = 0
KST2 120126Z 13014KT 34/19 A2996 RMK A01 T03390187  RH  041%=      5-min Rain = 0
KST2 120127Z 12014KT 34/19 A2996 RMK A01 T03390187  RH  041%=      5-min Rain = 0
KST2 120128Z 13015KT 34/19 A2996 RMK A01 T03380186  RH  041%=      5-min Rain = 0
KST2 120129Z 13015KT 34/19 A2996 RMK A01 T03380185  RH  041%=      5-min Rain = 0
KST2 120130Z 12014KT 34/19 A2996 RMK A01 T03380186  RH  041%=      5-min Rain = 0
KST2 120131Z 12012KT 34/19 A2996 RMK A01 T03370186  RH  041%=      5-min Rain = 0
KST2 120132Z 12012KT 34/19 A2996 RMK A01 T03370186  RH  041%=      5-min Rain = 0
KST2 120133Z 12013KT 34/19 A2996 RMK A01 T03370186  RH  041%=      5-min Rain = 0
KST2 120134Z 12013KT 34/19 A2996 RMK A01 T03360186  RH  041%=      5-min Rain = 0
KST2 120135Z 13016KT 34/19 A2996 RMK A01 T03360186  RH  041%=      5-min Rain = 0
KST2 120136Z 12015KT 34/19 A2996 RMK A01 T03350186  RH  041%=      5-min Rain = 0
KST2 120137Z 12016KT 34/19 A2996 RMK A01 T03350186  RH  041%=      5-min Rain = 0
KST2 120138Z 12015KT 34/19 A2996 RMK A01 T03350186  RH  041%=      5-min Rain = 0
KST2 120139Z 12012KT 33/19 A2996 RMK A01 T03340186  RH  042%=      5-min Rain = 0
KST2 120140Z 12014KT 33/19 A2997 RMK A01 T03340186  RH  042%=      5-min Rain = 0
KST2 120141Z 12014KT 33/19 A2997 RMK A01 T03340186  RH  042%=      5-min Rain = 0
KST2 120142Z 12013KT 33/19 A2997 RMK A01 T03330187  RH  042%=      5-min Rain = 0
KST2 120143Z 12012KT 33/19 A2997 RMK A01 T03330187  RH  042%=      5-min Rain = 0
KST2 120144Z 12012KT 33/19 A2997 RMK A01 T03330187  RH  042%=      5-min Rain = 0
KST2 120145Z 12013KT 33/19 A2997 RMK A01 T03320187  RH  042%=      5-min Rain = 0
KST2 120146Z 12014KT 33/19 A2997 RMK A01 T03320187  RH  042%=      5-min Rain = 0
KST2 120147Z 12014KT 33/19 A2997 RMK A01 T03310186  RH  042%=      5-min Rain = 0
KST2 120148Z 12013KT 33/19 A2997 RMK A01 T03310186  RH  042%=      5-min Rain = 0
KST2 120149Z 12014KT 33/19 A2997 RMK A01 T03310186  RH  042%=      5-min Rain = 0
KST2 120150Z 12011KT 33/19 A2997 RMK A01 T03310186  RH  042%=      5-min Rain = 0
KST2 120151Z 12012KT 33/19 A2997 RMK A01 T03310187  RH  043%=      5-min Rain = 0
KST2 120152Z 12012KT 33/19 A2997 RMK A01 T03300186  RH  043%=      5-min Rain = 0
KST2 120153Z 12013KT 33/19 A2997 RMK A01 T03300186  RH  043%=      5-min Rain = 0
KST2 120154Z 12013KT 33/19 A2997 RMK A01 T03300186  RH  043%=      5-min Rain = 0
KST2 120155Z 12011KT 33/19 A2997 RMK A01 T03290186  RH  043%=      5-min Rain = 0
KST2 120156Z 12012KT 33/19 A2998 RMK A01 T03290186  RH  043%=      5-min Rain = 0
KST2 120157Z 12011KT 33/19 A2998 RMK A01 T03280186  RH  043%=      5-min Rain = 0
KST2 120158Z 12012KT 33/19 A2998 RMK A01 T03280186  RH  043%=      5-min Rain = 0
KST2 120159Z 12013KT 33/19 A2998 RMK A01 T03280186  RH  043%=      5-min Rain = 0
KST2 120200Z 12012KT 33/19 A2998 RMK A01 T03280186  RH  043%=      5-min Rain = 0
KST2 120201Z 12013KT 33/19 A2998 RMK A01 T03270186  RH  043%=      5-min Rain = 0
KST2 120202Z 12012KT 33/19 A2998 RMK A01 T03270186  RH  043%=      5-min Rain = 0
KST2 120203Z 12010KT 33/19 A2998 RMK A01 T03270186  RH  043%=      5-min Rain = 0
KST2 120204Z 12011KT 33/19 A2998 RMK A01 T03270186  RH  043%=      5-min Rain = 0
KST2 120205Z 12010KT 33/19 A2998 RMK A01 T03260186  RH  044%=      5-min Rain = 0
KST2 120206Z 12011KT 33/19 A2998 RMK A01 T03260186  RH  044%=      5-min Rain = 0
KST2 120207Z 12012KT 33/19 A2998 RMK A01 T03250186  RH  044%=      5-min Rain = 0
KST2 120208Z 12011KT 33/19 A2998 RMK A01 T03250186  RH  044%=      5-min Rain = 0
KST2 120209Z 12012KT 33/19 A2998 RMK A01 T03250186  RH  044%=      5-min Rain = 0
KST2 120210Z 12014KT 33/19 A2998 RMK A01 T03250186  RH  044%=      5-min Rain = 0
KST2 120211Z 12013KT 33/19 A2998 RMK A01 T03250186  RH  044%=      5-min Rain = 0
KST2 120212Z 12013KT 33/19 A2998 RMK A01 T03250186  RH  044%=      5-min Rain = 0
KST2 120213Z 12011KT 32/19 A2998 RMK A01 T03240186  RH  044%=      5-min Rain = 0
KST2 120214Z 12013KT 32/19 A2998 RMK A01 T03240186  RH  044%=      5-min Rain = 0
KST2 120215Z 11012KT 32/19 A2998 RMK A01 T03230186  RH  044%=      5-min Rain = 0
KST2 120216Z 12012KT 32/19 A2998 RMK A01 T03230186  RH  044%=      5-min Rain = 0
KST2 120217Z 11012KT 32/19 A2998 RMK A01 T03230186  RH  044%=      5-min Rain = 0
KST2 120218Z 11010KT 32/19 A2999 RMK A01 T03220186  RH  044%=      5-min Rain = 0
KST2 120219Z 11010KT 32/19 A2999 RMK A01 T03220186  RH  045%=      5-min Rain = 0
KST2 120220Z 11010KT 32/19 A2999 RMK A01 T03210186  RH  045%=      5-min Rain = 0
KST2 120221Z 11013KT 32/19 A2999 RMK A01 T03210186  RH  045%=      5-min Rain = 0
KST2 120222Z 11011KT 32/19 A2999 RMK A01 T03210185  RH  045%=      5-min Rain = 0
KST2 120223Z 12011KT 32/19 A2999 RMK A01 T03210186  RH  045%=      5-min Rain = 0
KST2 120224Z 12011KT 32/19 A2999 RMK A01 T03210186  RH  045%=      5-min Rain = 0
KST2 120225Z 12011KT 32/19 A2999 RMK A01 T03200185  RH  045%=      5-min Rain = 0
KST2 120226Z 12012KT 32/19 A2999 RMK A01 T03200185  RH  045%=      5-min Rain = 0
KST2 120227Z 12011KT 32/19 A2999 RMK A01 T03200185  RH  045%=      5-min Rain = 0
KST2 120228Z 12012KT 32/19 A2999 RMK A01 T03200185  RH  045%=      5-min Rain = 0
KST2 120229Z 12010KT 32/19 A2999 RMK A01 T03190185  RH  045%=      5-min Rain = 0
KST2 120230Z 12012KT 32/19 A2999 RMK A01 T03190185  RH  045%=      5-min Rain = 0
KST2 120231Z 12011KT 32/19 A2999 RMK A01 T03190185  RH  045%=      5-min Rain = 0
KST2 120232Z 12012KT 32/19 A2999 RMK A01 T03190185  RH  045%=      5-min Rain = 0
KST2 120233Z 12013KT 32/19 A2999 RMK A01 T03180185  RH  045%=      5-min Rain = 0
KST2 120234Z 11010KT 32/18 A2999 RMK A01 T03180184  RH  045%=      5-min Rain = 0
KST2 120235Z 12013KT 32/18 A2999 RMK A01 T03180184  RH  045%=      5-min Rain = 0
KST2 120236Z 12012KT 32/18 A2999 RMK A01 T03170184  RH  045%=      5-min Rain = 0
KST2 120237Z 11012KT 32/18 A2999 RMK A01 T03180184  RH  045%=      5-min Rain = 0
KST2 120238Z 12011KT 32/18 A30 RMK A01 T03170184  RH  045%=      5-min Rain = 0
KST2 120239Z 11012KT 32/18 A30 RMK A01 T03170184  RH  045%=      5-min Rain = 0
KST2 120240Z 12013KT 32/18 A30 RMK A01 T03160184  RH  045%=      5-min Rain = 0
KST2 120241Z 12013KT 32/18 A30 RMK A01 T03170183  RH  045%=      5-min Rain = 0
KST2 120242Z 12011KT 32/18 A30 RMK A01 T03170184  RH  045%=      5-min Rain = 0
KST2 120243Z 12012KT 32/18 A30 RMK A01 T03170184  RH  045%=      5-min Rain = 0
KST2 120244Z 12015KT 32/18 A30 RMK A01 T03160184  RH  045%=      5-min Rain = 0
KST2 120245Z 12014KT 32/18 A30 RMK A01 T03160183  RH  045%=      5-min Rain = 0
KST2 120246Z 12016KT 32/18 A30 RMK A01 T03160183  RH  045%=      5-min Rain = 0
KST2 120247Z 12012KT 32/18 A30 RMK A01 T03160183  RH  045%=      5-min Rain = 0
KST2 120248Z 12013KT 32/18 A30 RMK A01 T03160183  RH  045%=      5-min Rain = 0
KST2 120249Z 12013KT 32/18 A30 RMK A01 T03160183  RH  045%=      5-min Rain = 0
KST2 120250Z 12012KT 32/18 A30 RMK A01 T03160183  RH  045%=      5-min Rain = 0
KST2 120251Z 12013KT 32/18 A30 RMK A01 T03160183  RH  045%=      5-min Rain = 0
KST2 120252Z 12015KT 32/18 A30 RMK A01 T03150183  RH  045%=      5-min Rain = 0
KST2 120253Z 12014KT 32/18 A30 RMK A01 T03160183  RH  045%=      5-min Rain = 0
KST2 120254Z 12014KT 32/18 A30 RMK A01 T03150182  RH  045%=      5-min Rain = 0
KST2 120255Z 12012KT 32/18 A30 RMK A01 T03160182  RH  045%=      5-min Rain = 0
KST2 120256Z 12013KT 32/18 A30 RMK A01 T03150182  RH  045%=      5-min Rain = 0
KST2 120257Z 13013KT 32/18 A30 RMK A01 T03150183  RH  045%=      5-min Rain = 0
KST2 120258Z 12011KT 31/18 A30 RMK A01 T03140183  RH  045%=      5-min Rain = 0
KST2 120259Z 12015KT 31/18 A30 RMK A01 T03140183  RH  046%=      5-min Rain = 0
KST2 120300Z 13013KT 31/18 A30 RMK A01 T03140182  RH  045%=      5-min Rain = 0
KST2 120301Z 13014KT 31/18 A30 RMK A01 T03140182  RH  045%=      5-min Rain = 0
KST2 120302Z 12014KT 31/18 A30 RMK A01 T03140182  RH  045%=      5-min Rain = 0
KST2 120303Z 13013KT 31/18 A30 RMK A01 T03140182  RH  045%=      5-min Rain = 0
KST2 120304Z 13012KT 31/18 A30 RMK A01 T03130182  RH  046%=      5-min Rain = 0
KST2 120305Z 13013KT 31/18 A30 RMK A01 T03130182  RH  046%=      5-min Rain = 0
KST2 120306Z 12012KT 31/18 A30 RMK A01 T03130182  RH  046%=      5-min Rain = 0
KST2 120307Z 12012KT 31/18 A3001 RMK A01 T03130182  RH  046%=      5-min Rain = 0
KST2 120308Z 12011KT 31/18 A3001 RMK A01 T03130182  RH  046%=      5-min Rain = 0
KST2 120309Z 12013KT 31/18 A3001 RMK A01 T03120182  RH  046%=      5-min Rain = 0
KST2 120310Z 12013KT 31/18 A3001 RMK A01 T03130183  RH  046%=      5-min Rain = 0
KST2 120311Z 12012KT 31/18 A3001 RMK A01 T03120182  RH  046%=      5-min Rain = 0
KST2 120312Z 12012KT 31/18 A3001 RMK A01 T03120182  RH  046%=      5-min Rain = 0
KST2 120313Z 12012KT 31/18 A3001 RMK A01 T03120182  RH  046%=      5-min Rain = 0
KST2 120314Z 12012KT 31/18 A3001 RMK A01 T03120182  RH  046%=      5-min Rain = 0
KST2 120315Z 12011KT 31/18 A3001 RMK A01 T03110182  RH  046%=      5-min Rain = 0
KST2 120316Z 13011KT 31/18 A3001 RMK A01 T03110182  RH  046%=      5-min Rain = 0
KST2 120317Z 13011KT 31/18 A3001 RMK A01 T03110182  RH  046%=      5-min Rain = 0
KST2 120318Z 13013KT 31/18 A3001 RMK A01 T03110182  RH  046%=      5-min Rain = 0
KST2 120319Z 13013KT 31/18 A3001 RMK A01 T03110181  RH  046%=      5-min Rain = 0
KST2 120320Z 13013KT 31/18 A3001 RMK A01 T03100181  RH  046%=      5-min Rain = 0
KST2 120321Z 13012KT 31/18 A3001 RMK A01 T03110182  RH  046%=      5-min Rain = 0
KST2 120322Z 13012KT 31/18 A3001 RMK A01 T03110182  RH  046%=      5-min Rain = 0
KST2 120323Z 13011KT 31/18 A3001 RMK A01 T03100182  RH  046%=      5-min Rain = 0
KST2 120324Z 13013KT 31/18 A3001 RMK A01 T03100181  RH  046%=      5-min Rain = 0
KST2 120325Z 13011KT 31/18 A3001 RMK A01 T03090181  RH  046%=      5-min Rain = 0
KST2 120326Z 13011KT 31/18 A3001 RMK A01 T03100182  RH  046%=      5-min Rain = 0
KST2 120327Z 12013KT 31/18 A3001 RMK A01 T03090182  RH  047%=      5-min Rain = 0
KST2 120328Z 12011KT 31/18 A3001 RMK A01 T03090181  RH  047%=      5-min Rain = 0
KST2 120329Z 13011KT 31/18 A3001 RMK A01 T03090181  RH  047%=      5-min Rain = 0
KST2 120330Z 13012KT 31/18 A3001 RMK A01 T03080181  RH  047%=      5-min Rain = 0
KST2 120331Z 13011KT 31/18 A3001 RMK A01 T03080181  RH  047%=      5-min Rain = 0
KST2 120332Z 13014KT 31/18 A3001 RMK A01 T03080181  RH  047%=      5-min Rain = 0
KST2 120333Z 12014KT 31/18 A3001 RMK A01 T03070181  RH  047%=      5-min Rain = 0
KST2 120334Z 12013KT 31/18 A3001 RMK A01 T03080181  RH  047%=      5-min Rain = 0
KST2 120335Z 13011KT 31/18 A3001 RMK A01 T03080181  RH  047%=      5-min Rain = 0
KST2 120336Z 12012KT 31/18 A3001 RMK A01 T03080181  RH  047%=      5-min Rain = 0
KST2 120337Z 13011KT 31/18 A3001 RMK A01 T03070181  RH  047%=      5-min Rain = 0
KST2 120338Z 12011KT 31/18 A3001 RMK A01 T03070182  RH  047%=      5-min Rain = 0
KST2 120339Z 12012KT 31/18 A3001 RMK A01 T03060181  RH  047%=      5-min Rain = 0
KST2 120340Z 12011KT 31/18 A3001 RMK A01 T03060181  RH  047%=      5-min Rain = 0
KST2 120341Z 12011KT 31/18 A3001 RMK A01 T03060182  RH  047%=      5-min Rain = 0
KST2 120342Z 12013KT 31/18 A3002 RMK A01 T03060182  RH  047%=      5-min Rain = 0
KST2 120343Z 12011KT 31/18 A3002 RMK A01 T03060182  RH  047%=      5-min Rain = 0
KST2 120344Z 12012KT 31/18 A3002 RMK A01 T03060182  RH  048%=      5-min Rain = 0
KST2 120345Z 12013KT 31/18 A3002 RMK A01 T03060182  RH  048%=      5-min Rain = 0
KST2 120346Z 13012KT 31/18 A3002 RMK A01 T03060182  RH  048%=      5-min Rain = 0
KST2 120347Z 12012KT 31/18 A3002 RMK A01 T03050182  RH  048%=      5-min Rain = 0
KST2 120348Z 12012KT 31/18 A3002 RMK A01 T03060182  RH  048%=      5-min Rain = 0
KST2 120349Z 12012KT 31/18 A3002 RMK A01 T03050182  RH  048%=      5-min Rain = 0
KST2 120350Z 13011KT 31/18 A3002 RMK A01 T03050182  RH  048%=      5-min Rain = 0
KST2 120351Z 13010KT 31/18 A3002 RMK A01 T03050182  RH  048%=      5-min Rain = 0
KST2 120352Z 13010KT 31/18 A3002 RMK A01 T03050183  RH  048%=      5-min Rain = 0
KST2 120353Z 13011KT 30/18 A3002 RMK A01 T03030182  RH  048%=      5-min Rain = 0
KST2 120354Z 13011KT 30/18 A3002 RMK A01 T03030182  RH  048%=      5-min Rain = 0
KST2 120355Z 13013KT 30/18 A3002 RMK A01 T03030182  RH  048%=      5-min Rain = 0
KST2 120356Z 12012KT 30/18 A3002 RMK A01 T03030182  RH  048%=      5-min Rain = 0
KST2 120357Z 12012KT 30/18 A3002 RMK A01 T03030182  RH  048%=      5-min Rain = 0
KST2 120358Z 13011KT 30/18 A3002 RMK A01 T03030182  RH  048%=      5-min Rain = 0
KST2 120359Z 13012KT 30/18 A3002 RMK A01 T03030183  RH  049%=      5-min Rain = 0
KST2 120400Z 13012KT 30/18 A3003 RMK A01 T03030183  RH  049%=      5-min Rain = 0
KST2 120401Z 13013KT 30/18 A3003 RMK A01 T03030183  RH  049%=      5-min Rain = 0
KST2 120402Z 13015KT 30/18 A3003 RMK A01 T03030183  RH  049%=      5-min Rain = 0
KST2 120403Z 13016KT 30/18 A3003 RMK A01 T03030184  RH  049%=      5-min Rain = 0
KST2 120404Z 13015KT 30/18 A3003 RMK A01 T03030184  RH  049%=      5-min Rain = 0
KST2 120405Z 13015KT 30/18 A3003 RMK A01 T03030184  RH  049%=      5-min Rain = 0
KST2 120406Z 13013KT 30/19 A3003 RMK A01 T03030185  RH  049%=      5-min Rain = 0
KST2 120407Z 13013KT 30/19 A3003 RMK A01 T03020185  RH  050%=      5-min Rain = 0
KST2 120408Z 13014KT 30/19 A3003 RMK A01 T03020186  RH  050%=      5-min Rain = 0
KST2 120409Z 13014KT 30/19 A3003 RMK A01 T03010185  RH  050%=      5-min Rain = 0
KST2 120410Z 14015KT 30/19 A3003 RMK A01 T03010185  RH  050%=      5-min Rain = 0
KST2 120411Z 13014KT 30/19 A3003 RMK A01 T03010185  RH  050%=      5-min Rain = 0
KST2 120412Z 13016KT 30/19 A3003 RMK A01 T03010186  RH  050%=      5-min Rain = 0
KST2 120413Z 13014KT 30/19 A3003 RMK A01 T03010185  RH  050%=      5-min Rain = 0
KST2 120414Z 13014KT 30/19 A3003 RMK A01 T03010185  RH  050%=      5-min Rain = 0
KST2 120415Z 13013KT 30/19 A3003 RMK A01 T03010185  RH  050%=      5-min Rain = 0
KST2 120416Z 13012KT 30/19 A3003 RMK A01 T03000185  RH  050%=      5-min Rain = 0
KST2 120417Z 13014KT 30/19 A3003 RMK A01 T03000185  RH  050%=      5-min Rain = 0
KST2 120418Z 13013KT 30/19 A3003 RMK A01 T03000185  RH  050%=      5-min Rain = 0
KST2 120419Z 13013KT 30/19 A3003 RMK A01 T03000186  RH  050%=      5-min Rain = 0
KST2 120420Z 13014KT 30/19 A3003 RMK A01 T02990185  RH  050%=      5-min Rain = 0
KST2 120421Z 13015KT 30/19 A3003 RMK A01 T02990185  RH  050%=      5-min Rain = 0
KST2 120422Z 13014KT 30/19 A3003 RMK A01 T02990185  RH  050%=      5-min Rain = 0
KST2 120423Z 13015KT 30/19 A3003 RMK A01 T03000186  RH  050%=      5-min Rain = 0
KST2 120424Z 13014KT 30/19 A3003 RMK A01 T02990185  RH  050%=      5-min Rain = 0
KST2 120425Z 13014KT 30/19 A3003 RMK A01 T02990186  RH  051%=      5-min Rain = 0
KST2 120426Z 13013KT 30/19 A3003 RMK A01 T02990185  RH  051%=      5-min Rain = 0
KST2 120427Z 13013KT 30/19 A3003 RMK A01 T02980186  RH  051%=      5-min Rain = 0
KST2 120428Z 13013KT 30/19 A3003 RMK A01 T02980186  RH  051%=      5-min Rain = 0
KST2 120429Z 13011KT 30/19 A3003 RMK A01 T02980186  RH  051%=      5-min Rain = 0
KST2 120430Z 13013KT 30/19 A3003 RMK A01 T02970186  RH  051%=      5-min Rain = 0
KST2 120431Z 13012KT 30/19 A3003 RMK A01 T02970186  RH  051%=      5-min Rain = 0
KST2 120432Z 13014KT 30/19 A3003 RMK A01 T02970186  RH  052%=      5-min Rain = 0
KST2 120433Z 13014KT 30/19 A3003 RMK A01 T02960187  RH  052%=      5-min Rain = 0
KST2 120434Z 12014KT 30/19 A3003 RMK A01 T02970187  RH  052%=      5-min Rain = 0
KST2 120435Z 13015KT 30/19 A3003 RMK A01 T02960187  RH  052%=      5-min Rain = 0
KST2 120436Z 13013KT 30/19 A3003 RMK A01 T02960187  RH  052%=      5-min Rain = 0
KST2 120437Z 13014KT 30/19 A3003 RMK A01 T02950187  RH  052%=      5-min Rain = 0
KST2 120438Z 13013KT 30/19 A3003 RMK A01 T02950188  RH  052%=      5-min Rain = 0
KST2 120439Z 13014KT 30/19 A3003 RMK A01 T02950188  RH  052%=      5-min Rain = 0
KST2 120440Z 13014KT 30/19 A3003 RMK A01 T02950188  RH  053%=      5-min Rain = 0
KST2 120441Z 13013KT 30/19 A3003 RMK A01 T02950188  RH  053%=      5-min Rain = 0
KST2 120442Z 14014KT 29/19 A3003 RMK A01 T02940188  RH  053%=      5-min Rain = 0
KST2 120443Z 14012KT 29/19 A3003 RMK A01 T02940188  RH  053%=      5-min Rain = 0
KST2 120444Z 13012KT 29/19 A3003 RMK A01 T02940188  RH  053%=      5-min Rain = 0
KST2 120445Z 14012KT 29/19 A3003 RMK A01 T02940188  RH  053%=      5-min Rain = 0
KST2 120446Z 14010KT 29/19 A3003 RMK A01 T02940188  RH  053%=      5-min Rain = 0
KST2 120447Z 14011KT 29/19 A3003 RMK A01 T02930188  RH  053%=      5-min Rain = 0
KST2 120448Z 14011KT 29/19 A3003 RMK A01 T02930188  RH  053%=      5-min Rain = 0
KST2 120449Z 14011KT 29/19 A3003 RMK A01 T02930188  RH  053%=      5-min Rain = 0
KST2 120450Z 14011KT 29/19 A3003 RMK A01 T02920188  RH  053%=      5-min Rain = 0
KST2 120451Z 14009KT 29/19 A3003 RMK A01 T02920188  RH  053%=      5-min Rain = 0
KST2 120452Z 13009KT 29/19 A3003 RMK A01 T02910188  RH  054%=      5-min Rain = 0
KST2 120453Z 13010KT 29/19 A3003 RMK A01 T02910188  RH  054%=      5-min Rain = 0
KST2 120454Z 13009KT 29/19 A3003 RMK A01 T02910188  RH  054%=      5-min Rain = 0
KST2 120455Z 13011KT 29/19 A3003 RMK A01 T02910188  RH  054%=      5-min Rain = 0
KST2 120456Z 13012KT 29/19 A3003 RMK A01 T02900188  RH  054%=      5-min Rain = 0
KST2 120457Z 14010KT 29/19 A3003 RMK A01 T02910188  RH  054%=      5-min Rain = 0
KST2 120458Z 13009KT 29/19 A3003 RMK A01 T02910189  RH  054%=      5-min Rain = 0
KST2 120459Z 13009KT 29/19 A3003 RMK A01 T02910189  RH  054%=      5-min Rain = 0
KST2 120500Z 13010KT 29/19 A3003 RMK A01 T02900189  RH  054%=      5-min Rain = 0

Page generated in 0.046 seconds.